Observation data for Throckmorton on 11/04/2019      Previous  Date       Current Mesonet Observations  Soil Data  Daily Summary Page  Observations in Plain Language
KTH1 040600Z 15005KT 11/04 A2993 RMK A01 T01090037  RH  061%=      5-min Rain = 0
KTH1 040601Z 16006KT 11/04 A2993 RMK A01 T01090036  RH  061%=      5-min Rain = 0
KTH1 040602Z 15006KT 11/04 A2993 RMK A01 T01090037  RH  061%=      5-min Rain = 0
KTH1 040603Z 15005KT 11/04 A2993 RMK A01 T01080037  RH  061%=      5-min Rain = 0
KTH1 040604Z 16006KT 11/04 A2993 RMK A01 T01080036  RH  061%=      5-min Rain = 0
KTH1 040605Z 15005KT 11/04 A2993 RMK A01 T01080036  RH  061%=      5-min Rain = 0
KTH1 040606Z 15005KT 11/04 A2993 RMK A01 T01070036  RH  061%=      5-min Rain = 0
KTH1 040607Z 15005KT 11/04 A2993 RMK A01 T01070036  RH  062%=      5-min Rain = 0
KTH1 040608Z 16004KT 11/04 A2993 RMK A01 T01060036  RH  062%=      5-min Rain = 0
KTH1 040609Z 16004KT 11/04 A2993 RMK A01 T01060036  RH  062%=      5-min Rain = 0
KTH1 040610Z 16005KT 11/04 A2993 RMK A01 T01050036  RH  062%=      5-min Rain = 0
KTH1 040611Z 16004KT 11/04 A2993 RMK A01 T01050036  RH  062%=      5-min Rain = 0
KTH1 040612Z 16005KT 10/04 A2993 RMK A01 T01040035  RH  062%=      5-min Rain = 0
KTH1 040613Z 16005KT 10/04 A2993 RMK A01 T01040035  RH  062%=      5-min Rain = 0
KTH1 040614Z 16005KT 10/04 A2993 RMK A01 T01030035  RH  063%=      5-min Rain = 0
KTH1 040615Z 16005KT 10/04 A2993 RMK A01 T01030035  RH  063%=      5-min Rain = 0
KTH1 040616Z 16005KT 10/04 A2993 RMK A01 T01030035  RH  063%=      5-min Rain = 0
KTH1 040617Z 16005KT 10/04 A2993 RMK A01 T01020035  RH  063%=      5-min Rain = 0
KTH1 040618Z 16006KT 10/04 A2993 RMK A01 T01020035  RH  063%=      5-min Rain = 0
KTH1 040619Z 16006KT 10/04 A2993 RMK A01 T01020035  RH  063%=      5-min Rain = 0
KTH1 040620Z 16005KT 10/04 A2993 RMK A01 T01020035  RH  063%=      5-min Rain = 0
KTH1 040621Z 16006KT 10/04 A2993 RMK A01 T01020035  RH  063%=      5-min Rain = 0
KTH1 040622Z 16005KT 10/04 A2992 RMK A01 T01020036  RH  063%=      5-min Rain = 0
KTH1 040623Z 16005KT 10/04 A2992 RMK A01 T01030036  RH  063%=      5-min Rain = 0
KTH1 040624Z 16006KT 10/04 A2992 RMK A01 T01030036  RH  063%=      5-min Rain = 0
KTH1 040625Z 17005KT 10/04 A2992 RMK A01 T01040036  RH  063%=      5-min Rain = 0
KTH1 040626Z 17005KT 10/04 A2992 RMK A01 T01040036  RH  063%=      5-min Rain = 0
KTH1 040627Z 16005KT 11/04 A2992 RMK A01 T01050037  RH  062%=      5-min Rain = 0
KTH1 040628Z 17005KT 11/04 A2992 RMK A01 T01060036  RH  062%=      5-min Rain = 0
KTH1 040629Z 16004KT 11/04 A2992 RMK A01 T01060037  RH  062%=      5-min Rain = 0
KTH1 040630Z 16005KT 11/04 A2992 RMK A01 T01070037  RH  062%=      5-min Rain = 0
KTH1 040631Z 16005KT 11/04 A2992 RMK A01 T01070037  RH  062%=      5-min Rain = 0
KTH1 040632Z 16005KT 11/04 A2992 RMK A01 T01070037  RH  062%=      5-min Rain = 0
KTH1 040633Z 15005KT 11/04 A2992 RMK A01 T01070037  RH  062%=      5-min Rain = 0
KTH1 040634Z 15005KT 11/04 A2992 RMK A01 T01070037  RH  062%=      5-min Rain = 0
KTH1 040635Z 16005KT 11/04 A2992 RMK A01 T01070037  RH  062%=      5-min Rain = 0
KTH1 040636Z 16006KT 11/04 A2992 RMK A01 T01070037  RH  062%=      5-min Rain = 0
KTH1 040637Z 15004KT 11/04 A2992 RMK A01 T01070037  RH  062%=      5-min Rain = 0
KTH1 040638Z 16005KT 11/04 A2992 RMK A01 T01070037  RH  062%=      5-min Rain = 0
KTH1 040639Z 16005KT 11/04 A2992 RMK A01 T01070037  RH  062%=      5-min Rain = 0
KTH1 040640Z 15005KT 11/04 A2992 RMK A01 T01070037  RH  062%=      5-min Rain = 0
KTH1 040641Z 15005KT 11/04 A2992 RMK A01 T01070037  RH  062%=      5-min Rain = 0
KTH1 040642Z 15004KT 11/04 A2992 RMK A01 T01060037  RH  062%=      5-min Rain = 0
KTH1 040643Z 15005KT 11/04 A2992 RMK A01 T01060037  RH  062%=      5-min Rain = 0
KTH1 040644Z 16005KT 11/04 A2992 RMK A01 T01060037  RH  062%=      5-min Rain = 0
KTH1 040645Z 15004KT 11/04 A2992 RMK A01 T01060037  RH  062%=      5-min Rain = 0
KTH1 040646Z 16004KT 11/04 A2992 RMK A01 T01050037  RH  063%=      5-min Rain = 0
KTH1 040647Z 15005KT 11/04 A2992 RMK A01 T01050037  RH  063%=      5-min Rain = 0
KTH1 040648Z 15005KT 11/04 A2992 RMK A01 T01050037  RH  063%=      5-min Rain = 0
KTH1 040649Z 16004KT 10/04 A2992 RMK A01 T01040036  RH  063%=      5-min Rain = 0
KTH1 040650Z 15005KT 10/04 A2992 RMK A01 T01040037  RH  063%=      5-min Rain = 0
KTH1 040651Z 15005KT 10/04 A2992 RMK A01 T01040037  RH  063%=      5-min Rain = 0
KTH1 040652Z 15004KT 10/04 A2992 RMK A01 T01030037  RH  063%=      5-min Rain = 0
KTH1 040653Z 16005KT 10/04 A2992 RMK A01 T01030037  RH  063%=      5-min Rain = 0
KTH1 040654Z 15004KT 10/04 A2992 RMK A01 T01040037  RH  063%=      5-min Rain = 0
KTH1 040655Z 15004KT 10/04 A2992 RMK A01 T01030037  RH  063%=      5-min Rain = 0
KTH1 040656Z 15005KT 10/04 A2992 RMK A01 T01020036  RH  064%=      5-min Rain = 0
KTH1 040657Z 15005KT 10/04 A2992 RMK A01 T01020036  RH  064%=      5-min Rain = 0
KTH1 040658Z 15004KT 10/04 A2992 RMK A01 T01020036  RH  064%=      5-min Rain = 0
KTH1 040659Z 15004KT 10/04 A2992 RMK A01 T01020036  RH  064%=      5-min Rain = 0
KTH1 040700Z 16004KT 10/04 A2992 RMK A01 T01010036  RH  064%=      5-min Rain = 0
KTH1 040701Z 16005KT 10/04 A2992 RMK A01 T01010036  RH  064%=      5-min Rain = 0
KTH1 040702Z 15004KT 10/04 A2992 RMK A01 T01010036  RH  064%=      5-min Rain = 0
KTH1 040703Z 16004KT 10/04 A2992 RMK A01 T01010036  RH  064%=      5-min Rain = 0
KTH1 040704Z 15004KT 10/04 A2992 RMK A01 T01010037  RH  064%=      5-min Rain = 0
KTH1 040705Z 16003KT 10/04 A2992 RMK A01 T01000036  RH  064%=      5-min Rain = 0
KTH1 040706Z 16004KT 10/04 A2992 RMK A01 T01000036  RH  064%=      5-min Rain = 0
KTH1 040707Z 16004KT 10/04 A2992 RMK A01 T01000036  RH  064%=      5-min Rain = 0
KTH1 040708Z 16004KT 10/04 A2992 RMK A01 T01000036  RH  064%=      5-min Rain = 0
KTH1 040709Z 16004KT 10/04 A2992 RMK A01 T01000036  RH  064%=      5-min Rain = 0
KTH1 040710Z 16004KT 10/04 A2992 RMK A01 T01000036  RH  065%=      5-min Rain = 0
KTH1 040711Z 16004KT 10/04 A2992 RMK A01 T00990036  RH  065%=      5-min Rain = 0
KTH1 040712Z 16005KT 10/04 A2992 RMK A01 T00990036  RH  065%=      5-min Rain = 0
KTH1 040713Z 15004KT 10/04 A2992 RMK A01 T00990036  RH  065%=      5-min Rain = 0
KTH1 040714Z 16005KT 10/04 A2992 RMK A01 T00990036  RH  065%=      5-min Rain = 0
KTH1 040715Z 16004KT 10/04 A2992 RMK A01 T00980036  RH  065%=      5-min Rain = 0
KTH1 040716Z 16004KT 10/04 A2992 RMK A01 T00980036  RH  065%=      5-min Rain = 0
KTH1 040717Z 16004KT 10/04 A2992 RMK A01 T00980036  RH  065%=      5-min Rain = 0
KTH1 040718Z 16004KT 10/04 A2992 RMK A01 T00970036  RH  066%=      5-min Rain = 0
KTH1 040719Z 16005KT 10/04 A2992 RMK A01 T00970036  RH  066%=      5-min Rain = 0
KTH1 040720Z 15004KT 10/04 A2992 RMK A01 T00970036  RH  066%=      5-min Rain = 0
KTH1 040721Z 15005KT 10/04 A2992 RMK A01 T00980037  RH  066%=      5-min Rain = 0
KTH1 040722Z 16005KT 10/04 A2992 RMK A01 T00990038  RH  065%=      5-min Rain = 0
KTH1 040723Z 16005KT 10/04 A2992 RMK A01 T01010038  RH  065%=      5-min Rain = 0
KTH1 040724Z 15005KT 10/04 A2992 RMK A01 T01020038  RH  064%=      5-min Rain = 0
KTH1 040725Z 16005KT 10/04 A2992 RMK A01 T01030038  RH  064%=      5-min Rain = 0
KTH1 040726Z 15004KT 10/04 A2992 RMK A01 T01040038  RH  064%=      5-min Rain = 0
KTH1 040727Z 16004KT 10/04 A2992 RMK A01 T01040039  RH  064%=      5-min Rain = 0
KTH1 040728Z 15004KT 10/04 A2992 RMK A01 T01040038  RH  064%=      5-min Rain = 0
KTH1 040729Z 15003KT 10/04 A2992 RMK A01 T01040038  RH  064%=      5-min Rain = 0
KTH1 040730Z 15005KT 10/04 A2992 RMK A01 T01030038  RH  064%=      5-min Rain = 0
KTH1 040731Z 15003KT 10/04 A2992 RMK A01 T01030039  RH  064%=      5-min Rain = 0
KTH1 040732Z 14004KT 10/04 A2992 RMK A01 T01040039  RH  064%=      5-min Rain = 0
KTH1 040733Z 15004KT 10/04 A2992 RMK A01 T01030039  RH  064%=      5-min Rain = 0
KTH1 040734Z 15004KT 10/04 A2992 RMK A01 T01030038  RH  064%=      5-min Rain = 0
KTH1 040735Z 15004KT 10/04 A2992 RMK A01 T01020039  RH  065%=      5-min Rain = 0
KTH1 040736Z 16004KT 10/04 A2992 RMK A01 T01030039  RH  065%=      5-min Rain = 0
KTH1 040737Z 15004KT 10/04 A2992 RMK A01 T01020039  RH  065%=      5-min Rain = 0
KTH1 040738Z 15004KT 10/04 A2992 RMK A01 T01020039  RH  065%=      5-min Rain = 0
KTH1 040739Z 16003KT 10/04 A2992 RMK A01 T01020039  RH  065%=      5-min Rain = 0
KTH1 040740Z 15004KT 10/04 A2992 RMK A01 T01020039  RH  065%=      5-min Rain = 0
KTH1 040741Z 15004KT 10/04 A2992 RMK A01 T01020039  RH  065%=      5-min Rain = 0
KTH1 040742Z 14004KT 10/04 A2992 RMK A01 T01020039  RH  065%=      5-min Rain = 0
KTH1 040743Z 15004KT 10/04 A2992 RMK A01 T01020038  RH  065%=      5-min Rain = 0
KTH1 040744Z 14004KT 10/04 A2992 RMK A01 T01020038  RH  065%=      5-min Rain = 0
KTH1 040745Z 15004KT 10/04 A2992 RMK A01 T01020039  RH  065%=      5-min Rain = 0
KTH1 040746Z 15004KT 10/04 A2992 RMK A01 T01010038  RH  065%=      5-min Rain = 0
KTH1 040747Z 15004KT 10/04 A2992 RMK A01 T01010038  RH  065%=      5-min Rain = 0
KTH1 040748Z 15004KT 10/04 A2992 RMK A01 T01000038  RH  065%=      5-min Rain = 0
KTH1 040749Z 16005KT 10/04 A2993 RMK A01 T01000038  RH  065%=      5-min Rain = 0
KTH1 040750Z 15004KT 10/04 A2993 RMK A01 T01000038  RH  066%=      5-min Rain = 0
KTH1 040751Z 16005KT 10/04 A2993 RMK A01 T00990038  RH  066%=      5-min Rain = 0
KTH1 040752Z 15005KT 10/04 A2993 RMK A01 T00990038  RH  066%=      5-min Rain = 0
KTH1 040753Z 16005KT 10/04 A2993 RMK A01 T00990038  RH  066%=      5-min Rain = 0
KTH1 040754Z 16005KT 10/04 A2993 RMK A01 T00990038  RH  066%=      5-min Rain = 0
KTH1 040755Z 16005KT 10/04 A2993 RMK A01 T00990038  RH  066%=      5-min Rain = 0
KTH1 040756Z 16005KT 10/04 A2993 RMK A01 T00980038  RH  066%=      5-min Rain = 0
KTH1 040757Z 16005KT 10/04 A2993 RMK A01 T00980038  RH  066%=      5-min Rain = 0
KTH1 040758Z 16004KT 10/04 A2992 RMK A01 T00980038  RH  066%=      5-min Rain = 0
KTH1 040759Z 15005KT 10/04 A2992 RMK A01 T00970038  RH  066%=      5-min Rain = 0
KTH1 040800Z 16006KT 10/04 A2992 RMK A01 T00970038  RH  067%=      5-min Rain = 0
KTH1 040801Z 16006KT 10/04 A2992 RMK A01 T00970038  RH  067%=      5-min Rain = 0
KTH1 040802Z 16006KT 10/04 A2993 RMK A01 T00960038  RH  067%=      5-min Rain = 0
KTH1 040803Z 16005KT 10/04 A2992 RMK A01 T00970038  RH  067%=      5-min Rain = 0
KTH1 040804Z 16005KT 10/04 A2993 RMK A01 T00970038  RH  067%=      5-min Rain = 0
KTH1 040805Z 16005KT 10/04 A2992 RMK A01 T00960038  RH  067%=      5-min Rain = 0
KTH1 040806Z 15006KT 10/04 A2992 RMK A01 T00960038  RH  067%=      5-min Rain = 0
KTH1 040807Z 16005KT 10/04 A2992 RMK A01 T00960038  RH  067%=      5-min Rain = 0
KTH1 040808Z 16005KT 10/04 A2992 RMK A01 T00950038  RH  067%=      5-min Rain = 0
KTH1 040809Z 15005KT 10/04 A2992 RMK A01 T00960038  RH  067%=      5-min Rain = 0
KTH1 040810Z 15004KT 10/04 A2992 RMK A01 T00950038  RH  067%=      5-min Rain = 0
KTH1 040811Z 15004KT 10/04 A2992 RMK A01 T00950038  RH  067%=      5-min Rain = 0
KTH1 040812Z 15005KT 10/04 A2992 RMK A01 T00950038  RH  068%=      5-min Rain = 0
KTH1 040813Z 15004KT 09/04 A2992 RMK A01 T00940037  RH  068%=      5-min Rain = 0
KTH1 040814Z 15003KT 09/04 A2992 RMK A01 T00940038  RH  068%=      5-min Rain = 0
KTH1 040815Z 15004KT 09/04 A2992 RMK A01 T00940037  RH  068%=      5-min Rain = 0
KTH1 040816Z 15004KT 09/04 A2992 RMK A01 T00930037  RH  068%=      5-min Rain = 0
KTH1 040817Z 15003KT 09/04 A2992 RMK A01 T00930038  RH  068%=      5-min Rain = 0
KTH1 040818Z 15004KT 09/04 A2992 RMK A01 T00920037  RH  068%=      5-min Rain = 0
KTH1 040819Z 15004KT 09/04 A2992 RMK A01 T00920038  RH  068%=      5-min Rain = 0
KTH1 040820Z 14004KT 09/04 A2992 RMK A01 T00920037  RH  068%=      5-min Rain = 0
KTH1 040821Z 14004KT 09/04 A2992 RMK A01 T00920037  RH  068%=      5-min Rain = 0
KTH1 040822Z 14004KT 09/04 A2992 RMK A01 T00920037  RH  069%=      5-min Rain = 0
KTH1 040823Z 14004KT 09/04 A2992 RMK A01 T00920037  RH  069%=      5-min Rain = 0
KTH1 040824Z 14005KT 09/04 A2992 RMK A01 T00920038  RH  069%=      5-min Rain = 0
KTH1 040825Z 15005KT 09/04 A2992 RMK A01 T00920038  RH  069%=      5-min Rain = 0
KTH1 040826Z 14005KT 09/04 A2991 RMK A01 T00910038  RH  069%=      5-min Rain = 0
KTH1 040827Z 14004KT 09/04 A2991 RMK A01 T00920038  RH  069%=      5-min Rain = 0
KTH1 040828Z 15005KT 09/04 A2991 RMK A01 T00910038  RH  069%=      5-min Rain = 0
KTH1 040829Z 14005KT 09/04 A2991 RMK A01 T00910038  RH  069%=      5-min Rain = 0
KTH1 040830Z 14005KT 09/04 A2991 RMK A01 T00910038  RH  069%=      5-min Rain = 0
KTH1 040831Z 14004KT 09/04 A2991 RMK A01 T00900037  RH  069%=      5-min Rain = 0
KTH1 040832Z 14005KT 09/04 A2991 RMK A01 T00900038  RH  070%=      5-min Rain = 0
KTH1 040833Z 15005KT 09/04 A2991 RMK A01 T00890037  RH  070%=      5-min Rain = 0
KTH1 040834Z 14003KT 09/04 A2991 RMK A01 T00900038  RH  070%=      5-min Rain = 0
KTH1 040835Z 15004KT 09/04 A2991 RMK A01 T00900037  RH  070%=      5-min Rain = 0
KTH1 040836Z 15004KT 09/04 A2991 RMK A01 T00900038  RH  070%=      5-min Rain = 0
KTH1 040837Z 14004KT 09/04 A2991 RMK A01 T00890038  RH  070%=      5-min Rain = 0
KTH1 040838Z 15005KT 09/04 A2991 RMK A01 T00890038  RH  070%=      5-min Rain = 0
KTH1 040839Z 15004KT 09/04 A2991 RMK A01 T00890038  RH  070%=      5-min Rain = 0
KTH1 040840Z 15005KT 09/04 A2991 RMK A01 T00890038  RH  070%=      5-min Rain = 0
KTH1 040841Z 15005KT 09/04 A2991 RMK A01 T00890038  RH  070%=      5-min Rain = 0
KTH1 040842Z 15005KT 09/04 A2991 RMK A01 T00880038  RH  071%=      5-min Rain = 0
KTH1 040843Z 16006KT 09/04 A2991 RMK A01 T00880038  RH  071%=      5-min Rain = 0
KTH1 040844Z 16005KT 09/04 A2991 RMK A01 T00880038  RH  071%=      5-min Rain = 0
KTH1 040845Z 16006KT 09/04 A2991 RMK A01 T00880038  RH  071%=      5-min Rain = 0
KTH1 040846Z 16006KT 09/04 A2991 RMK A01 T00880038  RH  071%=      5-min Rain = 0
KTH1 040847Z 15006KT 09/04 A2991 RMK A01 T00880038  RH  071%=      5-min Rain = 0
KTH1 040848Z 16006KT 09/04 A2991 RMK A01 T00880038  RH  071%=      5-min Rain = 0
KTH1 040849Z 16006KT 09/04 A2991 RMK A01 T00880038  RH  071%=      5-min Rain = 0
KTH1 040850Z 16006KT 09/04 A2991 RMK A01 T00890039  RH  071%=      5-min Rain = 0
KTH1 040851Z 16006KT 09/04 A2991 RMK A01 T00890039  RH  071%=      5-min Rain = 0
KTH1 040852Z 16006KT 09/04 A2991 RMK A01 T00890039  RH  071%=      5-min Rain = 0
KTH1 040853Z 16006KT 09/04 A2991 RMK A01 T00890039  RH  071%=      5-min Rain = 0
KTH1 040854Z 16005KT 09/04 A2991 RMK A01 T00890039  RH  070%=      5-min Rain = 0
KTH1 040855Z 16004KT 09/04 A2991 RMK A01 T00900039  RH  070%=      5-min Rain = 0
KTH1 040856Z 16005KT 09/04 A2991 RMK A01 T00890039  RH  070%=      5-min Rain = 0
KTH1 040857Z 16005KT 09/04 A2991 RMK A01 T00890039  RH  071%=      5-min Rain = 0
KTH1 040858Z 15005KT 09/04 A2991 RMK A01 T00890039  RH  071%=      5-min Rain = 0
KTH1 040859Z 15005KT 09/04 A2991 RMK A01 T00890039  RH  071%=      5-min Rain = 0
KTH1 040900Z 16005KT 09/04 A2991 RMK A01 T00890039  RH  071%=      5-min Rain = 0
KTH1 040901Z 16005KT 09/04 A2991 RMK A01 T00890039  RH  071%=      5-min Rain = 0
KTH1 040902Z 16005KT 09/04 A2991 RMK A01 T00890039  RH  071%=      5-min Rain = 0
KTH1 040903Z 16006KT 09/04 A2991 RMK A01 T00900039  RH  071%=      5-min Rain = 0
KTH1 040904Z 15005KT 09/04 A2991 RMK A01 T00900039  RH  071%=      5-min Rain = 0
KTH1 040905Z 16005KT 09/04 A2991 RMK A01 T00900039  RH  071%=      5-min Rain = 0
KTH1 040906Z 15005KT 09/04 A2991 RMK A01 T00900039  RH  071%=      5-min Rain = 0
KTH1 040907Z 16006KT 09/04 A2991 RMK A01 T00900039  RH  071%=      5-min Rain = 0
KTH1 040908Z 15005KT 09/04 A2991 RMK A01 T00900040  RH  071%=      5-min Rain = 0
KTH1 040909Z 16006KT 09/04 A2991 RMK A01 T00900040  RH  071%=      5-min Rain = 0
KTH1 040910Z 15005KT 09/04 A2991 RMK A01 T00900040  RH  071%=      5-min Rain = 0
KTH1 040911Z 15005KT 09/04 A2991 RMK A01 T00900040  RH  071%=      5-min Rain = 0
KTH1 040912Z 15006KT 09/04 A2991 RMK A01 T00910040  RH  071%=      5-min Rain = 0
KTH1 040913Z 15004KT 09/04 A2991 RMK A01 T00910040  RH  070%=      5-min Rain = 0
KTH1 040914Z 15004KT 09/04 A2991 RMK A01 T00910040  RH  070%=      5-min Rain = 0
KTH1 040915Z 14005KT 09/04 A2991 RMK A01 T00910040  RH  070%=      5-min Rain = 0
KTH1 040916Z 15004KT 09/04 A2991 RMK A01 T00910040  RH  071%=      5-min Rain = 0
KTH1 040917Z 15004KT 09/04 A2991 RMK A01 T00910040  RH  071%=      5-min Rain = 0
KTH1 040918Z 15004KT 09/04 A2991 RMK A01 T00910041  RH  071%=      5-min Rain = 0
KTH1 040919Z 14005KT 09/04 A2991 RMK A01 T00910041  RH  071%=      5-min Rain = 0
KTH1 040920Z 15004KT 09/04 A2991 RMK A01 T00910040  RH  071%=      5-min Rain = 0
KTH1 040921Z 14005KT 09/04 A2991 RMK A01 T00910041  RH  071%=      5-min Rain = 0
KTH1 040922Z 14005KT 09/04 A2991 RMK A01 T00910041  RH  071%=      5-min Rain = 0
KTH1 040923Z 14005KT 09/04 A2991 RMK A01 T00920041  RH  071%=      5-min Rain = 0
KTH1 040924Z 14005KT 09/04 A2991 RMK A01 T00920041  RH  070%=      5-min Rain = 0
KTH1 040925Z 14006KT 09/04 A2991 RMK A01 T00930041  RH  070%=      5-min Rain = 0
KTH1 040926Z 14004KT 09/04 A2991 RMK A01 T00930041  RH  070%=      5-min Rain = 0
KTH1 040927Z 14005KT 09/04 A2991 RMK A01 T00930041  RH  070%=      5-min Rain = 0
KTH1 040928Z 14004KT 09/04 A2991 RMK A01 T00930041  RH  070%=      5-min Rain = 0
KTH1 040929Z 15004KT 09/04 A2991 RMK A01 T00930041  RH  070%=      5-min Rain = 0
KTH1 040930Z 15004KT 09/04 A2991 RMK A01 T00930041  RH  070%=      5-min Rain = 0
KTH1 040931Z 15004KT 09/04 A2991 RMK A01 T00930041  RH  070%=      5-min Rain = 0
KTH1 040932Z 14003KT 09/04 A2991 RMK A01 T00920041  RH  070%=      5-min Rain = 0
KTH1 040933Z 15004KT 09/04 A2991 RMK A01 T00920041  RH  070%=      5-min Rain = 0
KTH1 040934Z 14004KT 09/04 A2991 RMK A01 T00910041  RH  071%=      5-min Rain = 0
KTH1 040935Z 14003KT 09/04 A2991 RMK A01 T00910041  RH  071%=      5-min Rain = 0
KTH1 040936Z 15004KT 09/04 A2991 RMK A01 T00920041  RH  071%=      5-min Rain = 0
KTH1 040937Z 14003KT 09/04 A2991 RMK A01 T00920041  RH  071%=      5-min Rain = 0
KTH1 040938Z 14004KT 09/04 A2991 RMK A01 T00910041  RH  071%=      5-min Rain = 0
KTH1 040939Z 14004KT 09/04 A2991 RMK A01 T00910041  RH  071%=      5-min Rain = 0
KTH1 040940Z 14004KT 09/04 A2991 RMK A01 T00910041  RH  071%=      5-min Rain = 0
KTH1 040941Z 15004KT 09/04 A2991 RMK A01 T00910041  RH  071%=      5-min Rain = 0
KTH1 040942Z 14004KT 09/04 A2991 RMK A01 T00910041  RH  071%=      5-min Rain = 0
KTH1 040943Z 14003KT 09/04 A2991 RMK A01 T00910041  RH  071%=      5-min Rain = 0
KTH1 040944Z 13003KT 09/04 A2991 RMK A01 T00910041  RH  071%=      5-min Rain = 0
KTH1 040945Z 14003KT 09/04 A2991 RMK A01 T00910041  RH  071%=      5-min Rain = 0
KTH1 040946Z 14003KT 09/04 A2991 RMK A01 T00910041  RH  071%=      5-min Rain = 0
KTH1 040947Z 14004KT 09/04 A2991 RMK A01 T00900041  RH  071%=      5-min Rain = 0
KTH1 040948Z 14004KT 09/04 A2991 RMK A01 T00900041  RH  071%=      5-min Rain = 0
KTH1 040949Z 15004KT 09/04 A2991 RMK A01 T00900041  RH  071%=      5-min Rain = 0
KTH1 040950Z 14004KT 09/04 A2991 RMK A01 T00900041  RH  071%=      5-min Rain = 0
KTH1 040951Z 14003KT 09/04 A2991 RMK A01 T00900041  RH  071%=      5-min Rain = 0
KTH1 040952Z 14003KT 09/04 A2991 RMK A01 T00900041  RH  072%=      5-min Rain = 0
KTH1 040953Z 14003KT 09/04 A2991 RMK A01 T00900041  RH  071%=      5-min Rain = 0
KTH1 040954Z 14003KT 09/04 A2991 RMK A01 T00890041  RH  072%=      5-min Rain = 0
KTH1 040955Z 14004KT 09/04 A2991 RMK A01 T00890041  RH  072%=      5-min Rain = 0
KTH1 040956Z 14004KT 09/04 A2991 RMK A01 T00890041  RH  072%=      5-min Rain = 0
KTH1 040957Z 14004KT 09/04 A2991 RMK A01 T00890041  RH  072%=      5-min Rain = 0
KTH1 040958Z 15004KT 09/04 A2991 RMK A01 T00890041  RH  072%=      5-min Rain = 0
KTH1 040959Z 14003KT 09/04 A2991 RMK A01 T00890041  RH  072%=      5-min Rain = 0
KTH1 041000Z 14004KT 09/04 A2991 RMK A01 T00900041  RH  072%=      5-min Rain = 0
KTH1 041001Z 13003KT 09/04 A2991 RMK A01 T00900041  RH  072%=      5-min Rain = 0
KTH1 041002Z 14005KT 09/04 A2991 RMK A01 T00890041  RH  072%=      5-min Rain = 0
KTH1 041003Z 14005KT 09/04 A2991 RMK A01 T00890042  RH  072%=      5-min Rain = 0
KTH1 041004Z 14006KT 09/04 A2991 RMK A01 T00890041  RH  072%=      5-min Rain = 0
KTH1 041005Z 15006KT 09/04 A2991 RMK A01 T00890041  RH  072%=      5-min Rain = 0
KTH1 041006Z 15006KT 09/04 A2991 RMK A01 T00890042  RH  072%=      5-min Rain = 0
KTH1 041007Z 15006KT 09/04 A2991 RMK A01 T00890042  RH  072%=      5-min Rain = 0
KTH1 041008Z 15005KT 09/04 A2991 RMK A01 T00880042  RH  073%=      5-min Rain = 0
KTH1 041009Z 15005KT 09/04 A2991 RMK A01 T00880041  RH  073%=      5-min Rain = 0
KTH1 041010Z 16005KT 09/04 A2991 RMK A01 T00880042  RH  073%=      5-min Rain = 0
KTH1 041011Z 15005KT 09/04 A2991 RMK A01 T00880042  RH  073%=      5-min Rain = 0
KTH1 041012Z 15004KT 09/04 A2991 RMK A01 T00880042  RH  073%=      5-min Rain = 0
KTH1 041013Z 15005KT 09/04 A2991 RMK A01 T00880042  RH  073%=      5-min Rain = 0
KTH1 041014Z 16005KT 09/04 A2991 RMK A01 T00880042  RH  073%=      5-min Rain = 0
KTH1 041015Z 15006KT 09/04 A2991 RMK A01 T00870042  RH  073%=      5-min Rain = 0
KTH1 041016Z 16006KT 09/04 A2991 RMK A01 T00870042  RH  073%=      5-min Rain = 0
KTH1 041017Z 15006KT 09/04 A2991 RMK A01 T00870042  RH  073%=      5-min Rain = 0
KTH1 041018Z 16006KT 09/04 A2991 RMK A01 T00870042  RH  073%=      5-min Rain = 0
KTH1 041019Z 15006KT 09/04 A2991 RMK A01 T00870042  RH  073%=      5-min Rain = 0
KTH1 041020Z 16005KT 09/04 A2991 RMK A01 T00870042  RH  073%=      5-min Rain = 0
KTH1 041021Z 15005KT 09/04 A2991 RMK A01 T00870042  RH  074%=      5-min Rain = 0
KTH1 041022Z 15005KT 09/04 A2991 RMK A01 T00870042  RH  074%=      5-min Rain = 0
KTH1 041023Z 15005KT 09/04 A2991 RMK A01 T00870042  RH  074%=      5-min Rain = 0
KTH1 041024Z 15005KT 09/04 A2991 RMK A01 T00870042  RH  074%=      5-min Rain = 0
KTH1 041025Z 15004KT 09/04 A2991 RMK A01 T00870043  RH  074%=      5-min Rain = 0
KTH1 041026Z 15004KT 09/04 A2992 RMK A01 T00860042  RH  074%=      5-min Rain = 0
KTH1 041027Z 15004KT 09/04 A2992 RMK A01 T00860043  RH  074%=      5-min Rain = 0
KTH1 041028Z 15003KT 09/04 A2992 RMK A01 T00870043  RH  074%=      5-min Rain = 0
KTH1 041029Z 14003KT 09/04 A2992 RMK A01 T00860043  RH  074%=      5-min Rain = 0
KTH1 041030Z 14003KT 09/04 A2992 RMK A01 T00860043  RH  074%=      5-min Rain = 0
KTH1 041031Z 16002KT 09/04 A2992 RMK A01 T00860043  RH  074%=      5-min Rain = 0
KTH1 041032Z 14002KT 09/04 A2992 RMK A01 T00860043  RH  074%=      5-min Rain = 0
KTH1 041033Z 15003KT 09/04 A2992 RMK A01 T00870043  RH  074%=      5-min Rain = 0
KTH1 041034Z 15002KT 09/04 A2992 RMK A01 T00870043  RH  074%=      5-min Rain = 0
KTH1 041035Z 17001KT 09/04 A2992 RMK A01 T00860043  RH  074%=      5-min Rain = 0
KTH1 041036Z 13000KT 09/04 A2992 RMK A01 T00860043  RH  074%=      5-min Rain = 0
KTH1 041037Z 13001KT 09/04 A2992 RMK A01 T00860043  RH  074%=      5-min Rain = 0
KTH1 041038Z 14001KT 09/04 A2992 RMK A01 T00870043  RH  074%=      5-min Rain = 0
KTH1 041039Z 15002KT 09/04 A2992 RMK A01 T00860044  RH  074%=      5-min Rain = 0
KTH1 041040Z 16001KT 09/04 A2992 RMK A01 T00860043  RH  074%=      5-min Rain = 0
KTH1 041041Z 15001KT 09/04 A2992 RMK A01 T00860043  RH  074%=      5-min Rain = 0
KTH1 041042Z 15002KT 09/04 A2992 RMK A01 T00860043  RH  074%=      5-min Rain = 0
KTH1 041043Z 16002KT 09/04 A2992 RMK A01 T00860043  RH  075%=      5-min Rain = 0
KTH1 041044Z 16003KT 09/04 A2992 RMK A01 T00860044  RH  075%=      5-min Rain = 0
KTH1 041045Z 15003KT 09/04 A2992 RMK A01 T00850043  RH  075%=      5-min Rain = 0
KTH1 041046Z 16004KT 09/04 A2992 RMK A01 T00850043  RH  075%=      5-min Rain = 0
KTH1 041047Z 16004KT 09/04 A2992 RMK A01 T00850043  RH  075%=      5-min Rain = 0
KTH1 041048Z 16004KT 09/04 A2992 RMK A01 T00850043  RH  075%=      5-min Rain = 0
KTH1 041049Z 17003KT 09/04 A2992 RMK A01 T00850043  RH  075%=      5-min Rain = 0
KTH1 041050Z 18003KT 08/04 A2992 RMK A01 T00840043  RH  075%=      5-min Rain = 0
KTH1 041051Z 18004KT 08/04 A2992 RMK A01 T00840043  RH  075%=      5-min Rain = 0
KTH1 041052Z 19003KT 08/04 A2992 RMK A01 T00830042  RH  075%=      5-min Rain = 0
KTH1 041053Z 18003KT 08/04 A2992 RMK A01 T00830042  RH  076%=      5-min Rain = 0
KTH1 041054Z 18004KT 08/04 A2992 RMK A01 T00830043  RH  076%=      5-min Rain = 0
KTH1 041055Z 17004KT 08/04 A2992 RMK A01 T00820042  RH  076%=      5-min Rain = 0
KTH1 041056Z 17004KT 08/04 A2992 RMK A01 T00820043  RH  076%=      5-min Rain = 0
KTH1 041057Z 17004KT 08/04 A2992 RMK A01 T00820043  RH  076%=      5-min Rain = 0
KTH1 041058Z 17004KT 08/04 A2992 RMK A01 T00820042  RH  076%=      5-min Rain = 0
KTH1 041059Z 16004KT 08/04 A2992 RMK A01 T00820042  RH  076%=      5-min Rain = 0
KTH1 041100Z 17005KT 08/04 A2992 RMK A01 T00810042  RH  076%=      5-min Rain = 0
KTH1 041101Z 16004KT 08/04 A2992 RMK A01 T00810043  RH  076%=      5-min Rain = 0
KTH1 041102Z 16004KT 08/04 A2992 RMK A01 T00810042  RH  076%=      5-min Rain = 0
KTH1 041103Z 16005KT 08/04 A2992 RMK A01 T00810042  RH  077%=      5-min Rain = 0
KTH1 041104Z 16005KT 08/04 A2991 RMK A01 T00810042  RH  077%=      5-min Rain = 0
KTH1 041105Z 16004KT 08/04 A2991 RMK A01 T00800042  RH  077%=      5-min Rain = 0
KTH1 041106Z 16004KT 08/04 A2992 RMK A01 T00790042  RH  077%=      5-min Rain = 0
KTH1 041107Z 16005KT 08/04 A2992 RMK A01 T00790042  RH  077%=      5-min Rain = 0
KTH1 041108Z 16004KT 08/04 A2991 RMK A01 T00790042  RH  077%=      5-min Rain = 0
KTH1 041109Z 16004KT 08/04 A2991 RMK A01 T00780041  RH  077%=      5-min Rain = 0
KTH1 041110Z 17004KT 08/04 A2991 RMK A01 T00770041  RH  078%=      5-min Rain = 0
KTH1 041111Z 16005KT 08/04 A2991 RMK A01 T00770041  RH  078%=      5-min Rain = 0
KTH1 041112Z 16006KT 08/04 A2991 RMK A01 T00770041  RH  078%=      5-min Rain = 0
KTH1 041113Z 16006KT 08/04 A2991 RMK A01 T00760041  RH  078%=      5-min Rain = 0
KTH1 041114Z 16006KT 08/04 A2991 RMK A01 T00760042  RH  079%=      5-min Rain = 0
KTH1 041115Z 16006KT 08/04 A2991 RMK A01 T00760042  RH  079%=      5-min Rain = 0
KTH1 041116Z 15006KT 08/04 A2991 RMK A01 T00770042  RH  079%=      5-min Rain = 0
KTH1 041117Z 16005KT 08/04 A2991 RMK A01 T00760042  RH  079%=      5-min Rain = 0
KTH1 041118Z 16006KT 08/04 A2991 RMK A01 T00760042  RH  079%=      5-min Rain = 0
KTH1 041119Z 16006KT 08/04 A2991 RMK A01 T00760042  RH  079%=      5-min Rain = 0
KTH1 041120Z 16005KT 08/04 A2991 RMK A01 T00760043  RH  079%=      5-min Rain = 0
KTH1 041121Z 16005KT 08/04 A2991 RMK A01 T00770043  RH  079%=      5-min Rain = 0
KTH1 041122Z 15005KT 08/04 A2991 RMK A01 T00770043  RH  079%=      5-min Rain = 0
KTH1 041123Z 16005KT 08/04 A2991 RMK A01 T00770043  RH  079%=      5-min Rain = 0
KTH1 041124Z 16005KT 08/04 A2991 RMK A01 T00780044  RH  079%=      5-min Rain = 0
KTH1 041125Z 16005KT 08/04 A2991 RMK A01 T00780044  RH  079%=      5-min Rain = 0
KTH1 041126Z 16004KT 08/04 A2991 RMK A01 T00790044  RH  079%=      5-min Rain = 0
KTH1 041127Z 15003KT 08/04 A2991 RMK A01 T00790044  RH  078%=      5-min Rain = 0
KTH1 041128Z 16005KT 08/04 A2991 RMK A01 T00790043  RH  078%=      5-min Rain = 0
KTH1 041129Z 16004KT 08/04 A2991 RMK A01 T00790044  RH  078%=      5-min Rain = 0
KTH1 041130Z 16004KT 08/04 A2991 RMK A01 T00790043  RH  078%=      5-min Rain = 0
KTH1 041131Z 16004KT 08/04 A2991 RMK A01 T00790043  RH  078%=      5-min Rain = 0
KTH1 041132Z 16004KT 08/04 A2991 RMK A01 T00790043  RH  078%=      5-min Rain = 0
KTH1 041133Z 16005KT 08/04 A2991 RMK A01 T00790043  RH  078%=      5-min Rain = 0
KTH1 041134Z 16005KT 08/04 A2991 RMK A01 T00790043  RH  078%=      5-min Rain = 0
KTH1 041135Z 16005KT 08/04 A2991 RMK A01 T00790043  RH  078%=      5-min Rain = 0
KTH1 041136Z 16004KT 08/04 A2991 RMK A01 T00790043  RH  078%=      5-min Rain = 0
KTH1 041137Z 17004KT 08/04 A2991 RMK A01 T00780043  RH  078%=      5-min Rain = 0
KTH1 041138Z 17003KT 08/04 A2991 RMK A01 T00790043  RH  078%=      5-min Rain = 0
KTH1 041139Z 18003KT 08/04 A2991 RMK A01 T00780043  RH  078%=      5-min Rain = 0
KTH1 041140Z 18003KT 08/04 A2992 RMK A01 T00780043  RH  078%=      5-min Rain = 0
KTH1 041141Z 17003KT 08/04 A2992 RMK A01 T00780043  RH  078%=      5-min Rain = 0
KTH1 041142Z 17003KT 08/04 A2992 RMK A01 T00780043  RH  079%=      5-min Rain = 0
KTH1 041143Z 17003KT 08/04 A2992 RMK A01 T00780043  RH  079%=      5-min Rain = 0
KTH1 041144Z 17003KT 08/04 A2992 RMK A01 T00770042  RH  079%=      5-min Rain = 0
KTH1 041145Z 17003KT 08/04 A2992 RMK A01 T00770042  RH  079%=      5-min Rain = 0
KTH1 041146Z 17002KT 08/04 A2992 RMK A01 T00770043  RH  079%=      5-min Rain = 0
KTH1 041147Z 17003KT 08/04 A2992 RMK A01 T00770043  RH  079%=      5-min Rain = 0
KTH1 041148Z 18004KT 08/04 A2992 RMK A01 T00770043  RH  079%=      5-min Rain = 0
KTH1 041149Z 17004KT 08/04 A2991 RMK A01 T00770042  RH  079%=      5-min Rain = 0
KTH1 041150Z 17005KT 08/04 A2991 RMK A01 T00770042  RH  079%=      5-min Rain = 0
KTH1 041151Z 18004KT 08/04 A2991 RMK A01 T00770042  RH  078%=      5-min Rain = 0
KTH1 041152Z 18003KT 08/04 A2991 RMK A01 T00770041  RH  078%=      5-min Rain = 0
KTH1 041153Z 18002KT 08/04 A2991 RMK A01 T00760041  RH  078%=      5-min Rain = 0
KTH1 041154Z 19003KT 08/04 A2991 RMK A01 T00760041  RH  079%=      5-min Rain = 0
KTH1 041155Z 20002KT 08/04 A2992 RMK A01 T00760041  RH  079%=      5-min Rain = 0
KTH1 041156Z 19001KT 08/04 A2992 RMK A01 T00750041  RH  079%=      5-min Rain = 0
KTH1 041157Z 20001KT 08/04 A2992 RMK A01 T00750040  RH  079%=      5-min Rain = 0
KTH1 041158Z 19002KT 07/04 A2992 RMK A01 T00740041  RH  079%=      5-min Rain = 0
KTH1 041159Z 19003KT 08/04 A2992 RMK A01 T00750041  RH  079%=      5-min Rain = 0
KTH1 041200Z 19002KT 08/04 A2992 RMK A01 T00750041  RH  079%=      5-min Rain = 0
KTH1 041201Z 18003KT 08/04 A2992 RMK A01 T00750041  RH  079%=      5-min Rain = 0
KTH1 041202Z 19003KT 08/04 A2992 RMK A01 T00760041  RH  078%=      5-min Rain = 0
KTH1 041203Z 19004KT 08/04 A2992 RMK A01 T00750040  RH  078%=      5-min Rain = 0
KTH1 041204Z 18005KT 08/04 A2991 RMK A01 T00750040  RH  078%=      5-min Rain = 0
KTH1 041205Z 19004KT 08/04 A2991 RMK A01 T00750040  RH  079%=      5-min Rain = 0
KTH1 041206Z 18004KT 07/04 A2991 RMK A01 T00740040  RH  079%=      5-min Rain = 0
KTH1 041207Z 18004KT 07/04 A2991 RMK A01 T00740040  RH  079%=      5-min Rain = 0
KTH1 041208Z 18004KT 07/04 A2991 RMK A01 T00740039  RH  078%=      5-min Rain = 0
KTH1 041209Z 18003KT 07/04 A2991 RMK A01 T00740039  RH  079%=      5-min Rain = 0
KTH1 041210Z 18004KT 07/04 A2991 RMK A01 T00740040  RH  079%=      5-min Rain = 0
KTH1 041211Z 18003KT 07/04 A2991 RMK A01 T00740039  RH  079%=      5-min Rain = 0
KTH1 041212Z 18004KT 07/04 A2991 RMK A01 T00740039  RH  079%=      5-min Rain = 0
KTH1 041213Z 18004KT 07/04 A2991 RMK A01 T00730039  RH  079%=      5-min Rain = 0
KTH1 041214Z 18004KT 07/04 A2991 RMK A01 T00730039  RH  079%=      5-min Rain = 0
KTH1 041215Z 17004KT 07/04 A2991 RMK A01 T00730039  RH  079%=      5-min Rain = 0
KTH1 041216Z 17004KT 07/04 A2991 RMK A01 T00740040  RH  079%=      5-min Rain = 0
KTH1 041217Z 17003KT 07/04 A2991 RMK A01 T00740040  RH  079%=      5-min Rain = 0
KTH1 041218Z 17004KT 07/04 A2991 RMK A01 T00740040  RH  079%=      5-min Rain = 0
KTH1 041219Z 17004KT 08/04 A2991 RMK A01 T00750040  RH  079%=      5-min Rain = 0
KTH1 041220Z 17004KT 07/04 A2991 RMK A01 T00740040  RH  079%=      5-min Rain = 0
KTH1 041221Z 17005KT 07/04 A2991 RMK A01 T00740039  RH  078%=      5-min Rain = 0
KTH1 041222Z 18005KT 08/04 A2991 RMK A01 T00750040  RH  078%=      5-min Rain = 0
KTH1 041223Z 17006KT 08/04 A2991 RMK A01 T00750040  RH  078%=      5-min Rain = 0
KTH1 041224Z 17005KT 08/04 A2991 RMK A01 T00750040  RH  078%=      5-min Rain = 0
KTH1 041225Z 18006KT 08/04 A2991 RMK A01 T00750040  RH  078%=      5-min Rain = 0
KTH1 041226Z 18005KT 08/04 A2991 RMK A01 T00760040  RH  078%=      5-min Rain = 0
KTH1 041227Z 18006KT 08/04 A2991 RMK A01 T00760041  RH  078%=      5-min Rain = 0
KTH1 041228Z 19005KT 08/04 A2992 RMK A01 T00770041  RH  078%=      5-min Rain = 0
KTH1 041229Z 19005KT 08/04 A2992 RMK A01 T00780041  RH  078%=      5-min Rain = 0
KTH1 041230Z 18005KT 08/04 A2992 RMK A01 T00780041  RH  077%=      5-min Rain = 0
KTH1 041231Z 18006KT 08/04 A2992 RMK A01 T00790041  RH  077%=      5-min Rain = 0
KTH1 041232Z 19004KT 08/04 A2992 RMK A01 T00790041  RH  077%=      5-min Rain = 0
KTH1 041233Z 19005KT 08/04 A2992 RMK A01 T00800041  RH  077%=      5-min Rain = 0
KTH1 041234Z 19006KT 08/04 A2992 RMK A01 T00800041  RH  076%=      5-min Rain = 0
KTH1 041235Z 18005KT 08/04 A2992 RMK A01 T00800041  RH  076%=      5-min Rain = 0
KTH1 041236Z 18004KT 08/04 A2992 RMK A01 T00800041  RH  076%=      5-min Rain = 0
KTH1 041237Z 19005KT 08/04 A2992 RMK A01 T00800041  RH  076%=      5-min Rain = 0
KTH1 041238Z 19005KT 08/04 A2992 RMK A01 T00800041  RH  077%=      5-min Rain = 0
KTH1 041239Z 20005KT 08/04 A2992 RMK A01 T00800041  RH  076%=      5-min Rain = 0
KTH1 041240Z 19005KT 08/04 A2992 RMK A01 T00800041  RH  076%=      5-min Rain = 0
KTH1 041241Z 20004KT 08/04 A2992 RMK A01 T00800041  RH  076%=      5-min Rain = 0
KTH1 041242Z 19004KT 08/04 A2992 RMK A01 T00800041  RH  076%=      5-min Rain = 0
KTH1 041243Z 20003KT 08/04 A2992 RMK A01 T00800041  RH  076%=      5-min Rain = 0
KTH1 041244Z 20005KT 08/04 A2992 RMK A01 T00810042  RH  076%=      5-min Rain = 0
KTH1 041245Z 20004KT 08/04 A2992 RMK A01 T00810041  RH  076%=      5-min Rain = 0
KTH1 041246Z 19004KT 08/04 A2992 RMK A01 T00800041  RH  076%=      5-min Rain = 0
KTH1 041247Z 19005KT 08/04 A2992 RMK A01 T00800041  RH  076%=      5-min Rain = 0
KTH1 041248Z 20004KT 08/04 A2992 RMK A01 T00800040  RH  076%=      5-min Rain = 0
KTH1 041249Z 19004KT 08/04 A2992 RMK A01 T00810041  RH  076%=      5-min Rain = 0
KTH1 041250Z 19005KT 08/04 A2992 RMK A01 T00810041  RH  076%=      5-min Rain = 0
KTH1 041251Z 19003KT 08/04 A2992 RMK A01 T00800041  RH  076%=      5-min Rain = 0
KTH1 041252Z 20003KT 08/04 A2992 RMK A01 T00800041  RH  076%=      5-min Rain = 0
KTH1 041253Z 20004KT 08/04 A2992 RMK A01 T00800041  RH  076%=      5-min Rain = 0
KTH1 041254Z 20003KT 08/04 A2992 RMK A01 T00800041  RH  076%=      5-min Rain = 0
KTH1 041255Z 19004KT 08/04 A2992 RMK A01 T00790041  RH  077%=      5-min Rain = 0
KTH1 041256Z 19005KT 08/04 A2992 RMK A01 T00790041  RH  077%=      5-min Rain = 0
KTH1 041257Z 19004KT 08/04 A2992 RMK A01 T00790041  RH  077%=      5-min Rain = 0
KTH1 041258Z 18005KT 08/04 A2992 RMK A01 T00790041  RH  077%=      5-min Rain = 0
KTH1 041259Z 19004KT 08/04 A2992 RMK A01 T00790041  RH  077%=      5-min Rain = 0
KTH1 041300Z 19004KT 08/04 A2992 RMK A01 T00790041  RH  077%=      5-min Rain = 0
KTH1 041301Z 19005KT 08/04 A2992 RMK A01 T00800041  RH  077%=      5-min Rain = 0
KTH1 041302Z 19005KT 08/04 A2992 RMK A01 T00800041  RH  076%=      5-min Rain = 0
KTH1 041303Z 19004KT 08/04 A2992 RMK A01 T00800041  RH  076%=      5-min Rain = 0
KTH1 041304Z 19005KT 08/04 A2992 RMK A01 T00800041  RH  076%=      5-min Rain = 0
KTH1 041305Z 18005KT 08/04 A2992 RMK A01 T00800041  RH  076%=      5-min Rain = 0
KTH1 041306Z 19004KT 08/04 A2992 RMK A01 T00810041  RH  076%=      5-min Rain = 0
KTH1 041307Z 18005KT 08/04 A2992 RMK A01 T00800041  RH  076%=      5-min Rain = 0
KTH1 041308Z 18006KT 08/04 A2992 RMK A01 T00800041  RH  076%=      5-min Rain = 0
KTH1 041309Z 18005KT 08/04 A2992 RMK A01 T00810041  RH  076%=      5-min Rain = 0
KTH1 041310Z 17006KT 08/04 A2992 RMK A01 T00810041  RH  076%=      5-min Rain = 0
KTH1 041311Z 18005KT 08/04 A2992 RMK A01 T00810042  RH  076%=      5-min Rain = 0
KTH1 041312Z 18006KT 08/04 A2992 RMK A01 T00810042  RH  076%=      5-min Rain = 0
KTH1 041313Z 18006KT 08/04 A2992 RMK A01 T00820042  RH  076%=      5-min Rain = 0
KTH1 041314Z 18007KT 08/04 A2992 RMK A01 T00820042  RH  076%=      5-min Rain = 0
KTH1 041315Z 17005KT 08/04 A2992 RMK A01 T00830042  RH  076%=      5-min Rain = 0
KTH1 041316Z 18005KT 08/04 A2992 RMK A01 T00830042  RH  075%=      5-min Rain = 0
KTH1 041317Z 17005KT 08/04 A2992 RMK A01 T00830042  RH  075%=      5-min Rain = 0
KTH1 041318Z 18003KT 08/04 A2992 RMK A01 T00830042  RH  075%=      5-min Rain = 0
KTH1 041319Z 18003KT 08/04 A2992 RMK A01 T00840042  RH  075%=      5-min Rain = 0
KTH1 041320Z 19002KT 08/04 A2993 RMK A01 T00840043  RH  075%=      5-min Rain = 0
KTH1 041321Z 19002KT 09/04 A2993 RMK A01 T00850042  RH  075%=      5-min Rain = 0
KTH1 041322Z 22002KT 09/04 A2993 RMK A01 T00860043  RH  074%=      5-min Rain = 0
KTH1 041323Z 19002KT 09/04 A2993 RMK A01 T00860043  RH  074%=      5-min Rain = 0
KTH1 041324Z 19004KT 09/04 A2993 RMK A01 T00870043  RH  074%=      5-min Rain = 0
KTH1 041325Z 18005KT 09/04 A2993 RMK A01 T00870042  RH  074%=      5-min Rain = 0
KTH1 041326Z 18005KT 09/04 A2993 RMK A01 T00880043  RH  073%=      5-min Rain = 0
KTH1 041327Z 18006KT 09/04 A2993 RMK A01 T00880043  RH  073%=      5-min Rain = 0
KTH1 041328Z 19005KT 09/04 A2993 RMK A01 T00890043  RH  073%=      5-min Rain = 0
KTH1 041329Z 19005KT 09/04 A2993 RMK A01 T00890043  RH  073%=      5-min Rain = 0
KTH1 041330Z 18005KT 09/04 A2993 RMK A01 T00890043  RH  073%=      5-min Rain = 0
KTH1 041331Z 18006KT 09/04 A2993 RMK A01 T00900043  RH  072%=      5-min Rain = 0
KTH1 041332Z 19005KT 09/04 A2993 RMK A01 T00910043  RH  072%=      5-min Rain = 0
KTH1 041333Z 18006KT 09/04 A2993 RMK A01 T00910043  RH  072%=      5-min Rain = 0
KTH1 041334Z 18005KT 09/04 A2993 RMK A01 T00920044  RH  072%=      5-min Rain = 0
KTH1 041335Z 18007KT 09/04 A2993 RMK A01 T00930044  RH  071%=      5-min Rain = 0
KTH1 041336Z 19005KT 09/04 A2993 RMK A01 T00940044  RH  071%=      5-min Rain = 0
KTH1 041337Z 18007KT 10/05 A2993 RMK A01 T00950045  RH  071%=      5-min Rain = 0
KTH1 041338Z 19006KT 10/05 A2993 RMK A01 T00960045  RH  071%=      5-min Rain = 0
KTH1 041339Z 18005KT 10/05 A2993 RMK A01 T00970045  RH  070%=      5-min Rain = 0
KTH1 041340Z 18007KT 10/05 A2993 RMK A01 T00980046  RH  070%=      5-min Rain = 0
KTH1 041341Z 18007KT 10/05 A2993 RMK A01 T00990046  RH  069%=      5-min Rain = 0
KTH1 041342Z 17006KT 10/05 A2993 RMK A01 T01000046  RH  069%=      5-min Rain = 0
KTH1 041343Z 18006KT 10/05 A2993 RMK A01 T01010046  RH  069%=      5-min Rain = 0
KTH1 041344Z 18005KT 10/05 A2993 RMK A01 T01020046  RH  068%=      5-min Rain = 0
KTH1 041345Z 17006KT 10/05 A2993 RMK A01 T01030046  RH  068%=      5-min Rain = 0
KTH1 041346Z 18004KT 10/05 A2993 RMK A01 T01040047  RH  068%=      5-min Rain = 0
KTH1 041347Z 19005KT 10/05 A2993 RMK A01 T01040046  RH  067%=      5-min Rain = 0
KTH1 041348Z 17005KT 11/05 A2993 RMK A01 T01050047  RH  067%=      5-min Rain = 0
KTH1 041349Z 18005KT 11/05 A2993 RMK A01 T01060047  RH  067%=      5-min Rain = 0
KTH1 041350Z 17004KT 11/05 A2993 RMK A01 T01060047  RH  067%=      5-min Rain = 0
KTH1 041351Z 18005KT 11/05 A2993 RMK A01 T01070047  RH  066%=      5-min Rain = 0
KTH1 041352Z 18004KT 11/05 A2993 RMK A01 T01080047  RH  066%=      5-min Rain = 0
KTH1 041353Z 17005KT 11/05 A2994 RMK A01 T01090048  RH  066%=      5-min Rain = 0
KTH1 041354Z 18004KT 11/05 A2994 RMK A01 T01100048  RH  066%=      5-min Rain = 0
KTH1 041355Z 16005KT 11/05 A2994 RMK A01 T01100048  RH  065%=      5-min Rain = 0
KTH1 041356Z 18006KT 11/05 A2994 RMK A01 T01110048  RH  065%=      5-min Rain = 0
KTH1 041357Z 18005KT 11/05 A2994 RMK A01 T01110048  RH  065%=      5-min Rain = 0
KTH1 041358Z 18004KT 11/05 A2994 RMK A01 T01120049  RH  065%=      5-min Rain = 0
KTH1 041359Z 18006KT 11/05 A2994 RMK A01 T01130049  RH  065%=      5-min Rain = 0
KTH1 041400Z 18005KT 11/05 A2994 RMK A01 T01130049  RH  065%=      5-min Rain = 0
KTH1 041401Z 18005KT 11/05 A2994 RMK A01 T01140049  RH  064%=      5-min Rain = 0
KTH1 041402Z 17006KT 11/05 A2994 RMK A01 T01140049  RH  064%=      5-min Rain = 0
KTH1 041403Z 18006KT 12/05 A2994 RMK A01 T01150049  RH  064%=      5-min Rain = 0
KTH1 041404Z 17007KT 12/05 A2994 RMK A01 T01150049  RH  064%=      5-min Rain = 0
KTH1 041405Z 17006KT 12/05 A2994 RMK A01 T01160049  RH  064%=      5-min Rain = 0
KTH1 041406Z 17005KT 12/05 A2994 RMK A01 T01160050  RH  064%=      5-min Rain = 0
KTH1 041407Z 17005KT 12/05 A2994 RMK A01 T01170050  RH  063%=      5-min Rain = 0
KTH1 041408Z 18005KT 12/05 A2995 RMK A01 T01170050  RH  063%=      5-min Rain = 0
KTH1 041409Z 17003KT 12/05 A2995 RMK A01 T01180050  RH  063%=      5-min Rain = 0
KTH1 041410Z 17004KT 12/05 A2995 RMK A01 T01190050  RH  063%=      5-min Rain = 0
KTH1 041411Z 17004KT 12/05 A2995 RMK A01 T01190050  RH  063%=      5-min Rain = 0
KTH1 041412Z 17004KT 12/05 A2995 RMK A01 T01200052  RH  063%=      5-min Rain = 0
KTH1 041413Z 18005KT 12/05 A2995 RMK A01 T01210052  RH  063%=      5-min Rain = 0
KTH1 041414Z 18007KT 12/05 A2995 RMK A01 T01220052  RH  062%=      5-min Rain = 0
KTH1 041415Z 18006KT 12/05 A2995 RMK A01 T01220051  RH  062%=      5-min Rain = 0
KTH1 041416Z 18007KT 12/05 A2995 RMK A01 T01230051  RH  062%=      5-min Rain = 0
KTH1 041417Z 18007KT 12/05 A2995 RMK A01 T01230051  RH  061%=      5-min Rain = 0
KTH1 041418Z 18007KT 12/05 A2995 RMK A01 T01240052  RH  061%=      5-min Rain = 0
KTH1 041419Z 18005KT 13/05 A2995 RMK A01 T01250053  RH  061%=      5-min Rain = 0
KTH1 041420Z 18005KT 13/05 A2995 RMK A01 T01260052  RH  061%=      5-min Rain = 0
KTH1 041421Z 19008KT 13/05 A2995 RMK A01 T01270053  RH  061%=      5-min Rain = 0
KTH1 041422Z 19007KT 13/05 A2995 RMK A01 T01280053  RH  060%=      5-min Rain = 0
KTH1 041423Z 18006KT 13/05 A2995 RMK A01 T01280053  RH  060%=      5-min Rain = 0
KTH1 041424Z 19005G10KT 13/05 A2995 RMK A01 T01300054  RH  060%=      5-min Rain = 0
KTH1 041425Z 19008KT 13/05 A2995 RMK A01 T01310053  RH  059%=      5-min Rain = 0
KTH1 041426Z 19005KT 13/05 A2996 RMK A01 T01310052  RH  059%=      5-min Rain = 0
KTH1 041427Z 20008KT 13/05 A2996 RMK A01 T01310053  RH  059%=      5-min Rain = 0
KTH1 041428Z 20008KT 13/05 A2996 RMK A01 T01300052  RH  059%=      5-min Rain = 0
KTH1 041429Z 20008KT 13/05 A2995 RMK A01 T01300052  RH  059%=      5-min Rain = 0
KTH1 041430Z 19008KT 13/05 A2995 RMK A01 T01300052  RH  059%=      5-min Rain = 0
KTH1 041431Z 20007KT 13/05 A2995 RMK A01 T01300052  RH  059%=      5-min Rain = 0
KTH1 041432Z 21004KT 13/05 A2995 RMK A01 T01300052  RH  059%=      5-min Rain = 0
KTH1 041433Z 20006KT 13/05 A2995 RMK A01 T01300053  RH  060%=      5-min Rain = 0
KTH1 041434Z 20005KT 13/05 A2995 RMK A01 T01310053  RH  059%=      5-min Rain = 0
KTH1 041435Z 20005KT 13/05 A2995 RMK A01 T01320054  RH  059%=      5-min Rain = 0
KTH1 041436Z 22003KT 13/05 A2995 RMK A01 T01330053  RH  059%=      5-min Rain = 0
KTH1 041437Z 22003KT 13/05 A2995 RMK A01 T01330053  RH  058%=      5-min Rain = 0
KTH1 041438Z 22004KT 13/05 A2996 RMK A01 T01330053  RH  058%=      5-min Rain = 0
KTH1 041439Z 22003KT 13/05 A2996 RMK A01 T01330053  RH  058%=      5-min Rain = 0
KTH1 041440Z 28002KT 13/05 A2996 RMK A01 T01330054  RH  058%=      5-min Rain = 0
KTH1 041441Z 28002KT 13/06 A2996 RMK A01 T01340055  RH  059%=      5-min Rain = 0
KTH1 041442Z 26003KT 14/06 A2996 RMK A01 T01350057  RH  059%=      5-min Rain = 0
KTH1 041443Z 25003KT 14/06 A2996 RMK A01 T01350057  RH  059%=      5-min Rain = 0
KTH1 041444Z 24006KT 14/06 A2996 RMK A01 T01360056  RH  058%=      5-min Rain = 0
KTH1 041445Z 21005KT 14/06 A2996 RMK A01 T01360055  RH  058%=      5-min Rain = 0
KTH1 041446Z 21004KT 14/06 A2996 RMK A01 T01360055  RH  058%=      5-min Rain = 0
KTH1 041447Z 23005KT 14/06 A2996 RMK A01 T01370055  RH  057%=      5-min Rain = 0
KTH1 041448Z 23004KT 14/05 A2996 RMK A01 T01380054  RH  057%=      5-min Rain = 0
KTH1 041449Z 25003KT 14/06 A2996 RMK A01 T01370055  RH  057%=      5-min Rain = 0
KTH1 041450Z 24003KT 14/06 A2996 RMK A01 T01370055  RH  057%=      5-min Rain = 0
KTH1 041451Z 22004KT 14/05 A2996 RMK A01 T01380054  RH  057%=      5-min Rain = 0
KTH1 041452Z 21005KT 14/06 A2996 RMK A01 T01380055  RH  057%=      5-min Rain = 0
KTH1 041453Z 24003KT 14/06 A2996 RMK A01 T01390056  RH  057%=      5-min Rain = 0
KTH1 041454Z 23003KT 14/06 A2996 RMK A01 T01390057  RH  057%=      5-min Rain = 0
KTH1 041455Z 23003KT 14/06 A2996 RMK A01 T01390057  RH  058%=      5-min Rain = 0
KTH1 041456Z 23003KT 14/06 A2996 RMK A01 T01390056  RH  057%=      5-min Rain = 0
KTH1 041457Z 23004KT 14/06 A2996 RMK A01 T01400057  RH  057%=      5-min Rain = 0
KTH1 041458Z 23005KT 14/06 A2996 RMK A01 T01410057  RH  057%=      5-min Rain = 0
KTH1 041459Z 21004KT 14/06 A2996 RMK A01 T01420055  RH  056%=      5-min Rain = 0
KTH1 041500Z 23005KT 14/06 A2996 RMK A01 T01430056  RH  056%=      5-min Rain = 0
KTH1 041501Z 26004KT 14/06 A2996 RMK A01 T01430057  RH  056%=      5-min Rain = 0
KTH1 041502Z 25006KT 14/06 A2996 RMK A01 T01440062  RH  058%=      5-min Rain = 0
KTH1 041503Z 24006KT 14/06 A2996 RMK A01 T01440060  RH  057%=      5-min Rain = 0
KTH1 041504Z 24006KT 14/06 A2996 RMK A01 T01430057  RH  056%=      5-min Rain = 0
KTH1 041505Z 23005KT 14/06 A2996 RMK A01 T01430057  RH  057%=      5-min Rain = 0
KTH1 041506Z 22005KT 14/06 A2996 RMK A01 T01430057  RH  056%=      5-min Rain = 0
KTH1 041507Z 23005KT 14/06 A2996 RMK A01 T01440056  RH  056%=      5-min Rain = 0
KTH1 041508Z 23004KT 14/06 A2996 RMK A01 T01440056  RH  055%=      5-min Rain = 0
KTH1 041509Z 23004KT 15/06 A2996 RMK A01 T01450056  RH  055%=      5-min Rain = 0
KTH1 041510Z 22004KT 15/06 A2996 RMK A01 T01460057  RH  055%=      5-min Rain = 0
KTH1 041511Z 24004KT 15/06 A2996 RMK A01 T01470059  RH  056%=      5-min Rain = 0
KTH1 041512Z 24006KT 15/06 A2996 RMK A01 T01480058  RH  055%=      5-min Rain = 0
KTH1 041513Z 24006KT 15/06 A2996 RMK A01 T01480058  RH  055%=      5-min Rain = 0
KTH1 041514Z 24006KT 15/06 A2996 RMK A01 T01480059  RH  055%=      5-min Rain = 0
KTH1 041515Z 24006KT 15/06 A2996 RMK A01 T01470058  RH  055%=      5-min Rain = 0
KTH1 041516Z 24005KT 15/06 A2996 RMK A01 T01480059  RH  055%=      5-min Rain = 0
KTH1 041517Z 25005KT 15/06 A2996 RMK A01 T01480059  RH  055%=      5-min Rain = 0
KTH1 041518Z 24006KT 15/06 A2996 RMK A01 T01490060  RH  055%=      5-min Rain = 0
KTH1 041519Z 24006KT 15/06 A2996 RMK A01 T01500060  RH  055%=      5-min Rain = 0
KTH1 041520Z 24006KT 15/06 A2996 RMK A01 T01510059  RH  054%=      5-min Rain = 0
KTH1 041521Z 23005KT 15/06 A2996 RMK A01 T01510060  RH  054%=      5-min Rain = 0
KTH1 041522Z 24005KT 15/06 A2996 RMK A01 T01520059  RH  054%=      5-min Rain = 0
KTH1 041523Z 23004KT 15/06 A2996 RMK A01 T01520060  RH  054%=      5-min Rain = 0
KTH1 041524Z 23005KT 15/06 A2996 RMK A01 T01540061  RH  054%=      5-min Rain = 0
KTH1 041525Z 24005KT 15/06 A2996 RMK A01 T01540060  RH  053%=      5-min Rain = 0
KTH1 041526Z 24005KT 15/06 A2996 RMK A01 T01540060  RH  054%=      5-min Rain = 0
KTH1 041527Z 21004KT 16/06 A2996 RMK A01 T01550062  RH  054%=      5-min Rain = 0
KTH1 041528Z 23004KT 16/06 A2996 RMK A01 T01580062  RH  053%=      5-min Rain = 0
KTH1 041529Z 22004KT 16/06 A2996 RMK A01 T01600061  RH  052%=      5-min Rain = 0
KTH1 041530Z 22006KT 16/06 A2996 RMK A01 T01610062  RH  052%=      5-min Rain = 0
KTH1 041531Z 23005KT 16/06 A2996 RMK A01 T01630063  RH  052%=      5-min Rain = 0
KTH1 041532Z 22003KT 17/06 A2996 RMK A01 T01650064  RH  051%=      5-min Rain = 0
KTH1 041533Z 23003KT 17/06 A2995 RMK A01 T01670064  RH  051%=      5-min Rain = 0
KTH1 041534Z 23006KT 17/06 A2995 RMK A01 T01670064  RH  051%=      5-min Rain = 0
KTH1 041535Z 23005KT 17/07 A2995 RMK A01 T01680065  RH  051%=      5-min Rain = 0
KTH1 041536Z 23007KT 17/07 A2995 RMK A01 T01690065  RH  050%=      5-min Rain = 0
KTH1 041537Z 23008KT 17/07 A2995 RMK A01 T01700065  RH  050%=      5-min Rain = 0
KTH1 041538Z 24009KT 17/07 A2995 RMK A01 T01710065  RH  050%=      5-min Rain = 0
KTH1 041539Z 23009KT 17/07 A2995 RMK A01 T01720065  RH  050%=      5-min Rain = 0
KTH1 041540Z 25010KT 17/07 A2995 RMK A01 T01730066  RH  050%=      5-min Rain = 0
KTH1 041541Z 25010KT 17/07 A2995 RMK A01 T01730069  RH  050%=      5-min Rain = 0
KTH1 041542Z 24008KT 17/07 A2995 RMK A01 T01740070  RH  050%=      5-min Rain = 0
KTH1 041543Z 24009KT 18/07 A2995 RMK A01 T01750068  RH  050%=      5-min Rain = 0
KTH1 041544Z 25012KT 18/07 A2995 RMK A01 T01750070  RH  050%=      5-min Rain = 0
KTH1 041545Z 24011KT 18/07 A2995 RMK A01 T01750068  RH  049%=      5-min Rain = 0
KTH1 041546Z 24009G14KT 17/07 A2995 RMK A01 T01740067  RH  050%=      5-min Rain = 0
KTH1 041547Z 24013KT 17/07 A2995 RMK A01 T01740068  RH  050%=      5-min Rain = 0
KTH1 041548Z 24011KT 17/07 A2995 RMK A01 T01740066  RH  049%=      5-min Rain = 0
KTH1 041549Z 23009KT 17/07 A2995 RMK A01 T01740065  RH  049%=      5-min Rain = 0
KTH1 041550Z 24007KT 18/07 A2995 RMK A01 T01750066  RH  049%=      5-min Rain = 0
KTH1 041551Z 23007KT 18/07 A2995 RMK A01 T01770068  RH  049%=      5-min Rain = 0
KTH1 041552Z 23009KT 18/07 A2994 RMK A01 T01800068  RH  048%=      5-min Rain = 0
KTH1 041553Z 23010KT 18/07 A2994 RMK A01 T01810067  RH  047%=      5-min Rain = 0
KTH1 041554Z 24011KT 18/07 A2995 RMK A01 T01810066  RH  047%=      5-min Rain = 0
KTH1 041555Z 23008KT 18/07 A2995 RMK A01 T01810067  RH  048%=      5-min Rain = 0
KTH1 041556Z 23009KT 18/07 A2994 RMK A01 T01810067  RH  047%=      5-min Rain = 0
KTH1 041557Z 22007KT 18/07 A2994 RMK A01 T01820067  RH  047%=      5-min Rain = 0
KTH1 041558Z 25011KT 18/07 A2994 RMK A01 T01840068  RH  047%=      5-min Rain = 0
KTH1 041559Z 25009KT 18/07 A2995 RMK A01 T01840070  RH  047%=      5-min Rain = 0
KTH1 041600Z 25009KT 18/07 A2995 RMK A01 T01820071  RH  048%=      5-min Rain = 0
KTH1 041601Z 25009G16KT 18/07 A2995 RMK A01 T01810072  RH  049%=      5-min Rain = 0
KTH1 041602Z 24011KT 18/07 A2995 RMK A01 T01810070  RH  048%=      5-min Rain = 0
KTH1 041603Z 24009KT 18/07 A2995 RMK A01 T01830068  RH  047%=      5-min Rain = 0
KTH1 041604Z 25010KT 19/07 A2995 RMK A01 T01860069  RH  047%=      5-min Rain = 0
KTH1 041605Z 25010KT 19/07 A2995 RMK A01 T01870072  RH  047%=      5-min Rain = 0
KTH1 041606Z 26009KT 19/08 A2995 RMK A01 T01870075  RH  048%=      5-min Rain = 0
KTH1 041607Z 25010KT 19/08 A2995 RMK A01 T01870076  RH  048%=      5-min Rain = 0
KTH1 041608Z 25009KT 19/07 A2995 RMK A01 T01870073  RH  047%=      5-min Rain = 0
KTH1 041609Z 24008KT 19/07 A2995 RMK A01 T01880072  RH  047%=      5-min Rain = 0
KTH1 041610Z 24008KT 19/07 A2995 RMK A01 T01890072  RH  046%=      5-min Rain = 0
KTH1 041611Z 25009KT 19/07 A2995 RMK A01 T01900071  RH  046%=      5-min Rain = 0
KTH1 041612Z 25008KT 19/07 A2994 RMK A01 T01920073  RH  046%=      5-min Rain = 0
KTH1 041613Z 25012KT 19/07 A2994 RMK A01 T01930073  RH  046%=      5-min Rain = 0
KTH1 041614Z 26011KT 19/07 A2994 RMK A01 T01920074  RH  046%=      5-min Rain = 0
KTH1 041615Z 27012KT 19/07 A2994 RMK A01 T01910073  RH  046%=      5-min Rain = 0
KTH1 041616Z 25011KT 19/07 A2995 RMK A01 T01920074  RH  046%=      5-min Rain = 0
KTH1 041617Z 25010KT 19/07 A2995 RMK A01 T01920074  RH  046%=      5-min Rain = 0
KTH1 041618Z 25013KT 19/08 A2995 RMK A01 T01910076  RH  047%=      5-min Rain = 0
KTH1 041619Z 25017KT 19/07 A2994 RMK A01 T01900073  RH  046%=      5-min Rain = 0
KTH1 041620Z 26017KT 19/07 A2994 RMK A01 T01900071  RH  046%=      5-min Rain = 0
KTH1 041621Z 25015KT 19/07 A2994 RMK A01 T01880070  RH  046%=      5-min Rain = 0
KTH1 041622Z 26015KT 19/07 A2994 RMK A01 T01880068  RH  045%=      5-min Rain = 0
KTH1 041623Z 26014KT 19/07 A2994 RMK A01 T01890070  RH  046%=      5-min Rain = 0
KTH1 041624Z 26017KT 19/07 A2994 RMK A01 T01890071  RH  046%=      5-min Rain = 0
KTH1 041625Z 26014KT 19/07 A2994 RMK A01 T01890070  RH  046%=      5-min Rain = 0
KTH1 041626Z 26012KT 19/07 A2994 RMK A01 T01900071  RH  046%=      5-min Rain = 0
KTH1 041627Z 26013KT 19/07 A2994 RMK A01 T01890072  RH  047%=      5-min Rain = 0
KTH1 041628Z 27012G17KT 19/07 A2994 RMK A01 T01900069  RH  045%=      5-min Rain = 0
KTH1 041629Z 25014KT 19/07 A2994 RMK A01 T01920069  RH  045%=      5-min Rain = 0
KTH1 041630Z 26014KT 19/07 A2994 RMK A01 T01930070  RH  045%=      5-min Rain = 0
KTH1 041631Z 26012KT 19/07 A2994 RMK A01 T01930071  RH  045%=      5-min Rain = 0
KTH1 041632Z 25012KT 19/07 A2994 RMK A01 T01930070  RH  045%=      5-min Rain = 0
KTH1 041633Z 25012KT 19/07 A2994 RMK A01 T01930067  RH  044%=      5-min Rain = 0
KTH1 041634Z 25013KT 19/07 A2994 RMK A01 T01940067  RH  044%=      5-min Rain = 0
KTH1 041635Z 26013KT 19/07 A2994 RMK A01 T01930072  RH  045%=      5-min Rain = 0
KTH1 041636Z 25011KT 19/07 A2995 RMK A01 T01900072  RH  046%=      5-min Rain = 0
KTH1 041637Z 25009KT 19/07 A2995 RMK A01 T01900069  RH  045%=      5-min Rain = 0
KTH1 041638Z 25010KT 19/07 A2994 RMK A01 T01930069  RH  044%=      5-min Rain = 0
KTH1 041639Z 25014KT 20/07 A2994 RMK A01 T01950070  RH  044%=      5-min Rain = 0
KTH1 041640Z 25015KT 20/07 A2994 RMK A01 T01960070  RH  044%=      5-min Rain = 0
KTH1 041641Z 26015KT 19/07 A2994 RMK A01 T01940070  RH  045%=      5-min Rain = 0
KTH1 041642Z 26012KT 19/07 A2994 RMK A01 T01930067  RH  044%=      5-min Rain = 0
KTH1 041643Z 25011KT 19/07 A2995 RMK A01 T01930067  RH  044%=      5-min Rain = 0
KTH1 041644Z 25012KT 20/07 A2995 RMK A01 T01960070  RH  044%=      5-min Rain = 0
KTH1 041645Z 25013KT 20/07 A2994 RMK A01 T01970068  RH  043%=      5-min Rain = 0
KTH1 041646Z 25010KT 20/07 A2994 RMK A01 T01970070  RH  044%=      5-min Rain = 0
KTH1 041647Z 26015KT 20/07 A2994 RMK A01 T01960072  RH  044%=      5-min Rain = 0
KTH1 041648Z 25014KT 20/07 A2994 RMK A01 T01950068  RH  044%=      5-min Rain = 0
KTH1 041649Z 25013KT 20/07 A2995 RMK A01 T01960066  RH  043%=      5-min Rain = 0
KTH1 041650Z 25014KT 20/06 A2995 RMK A01 T01960062  RH  041%=      5-min Rain = 0
KTH1 041651Z 26014KT 20/07 A2995 RMK A01 T01970065  RH  042%=      5-min Rain = 0
KTH1 041652Z 26012KT 20/07 A2995 RMK A01 T01970067  RH  043%=      5-min Rain = 0
KTH1 041653Z 26014KT 20/07 A2995 RMK A01 T01960070  RH  044%=      5-min Rain = 0
KTH1 041654Z 26013KT 19/07 A2995 RMK A01 T01940067  RH  044%=      5-min Rain = 0
KTH1 041655Z 24010KT 19/07 A2995 RMK A01 T01940065  RH  043%=      5-min Rain = 0
KTH1 041656Z 24010KT 20/06 A2995 RMK A01 T01950063  RH  042%=      5-min Rain = 0
KTH1 041657Z 25011KT 20/06 A2995 RMK A01 T01980061  RH  041%=      5-min Rain = 0
KTH1 041658Z 26009KT 20/07 A2995 RMK A01 T02000065  RH  041%=      5-min Rain = 0
KTH1 041659Z 25009KT 20/07 A2995 RMK A01 T02010067  RH  042%=      5-min Rain = 0
KTH1 041700Z 25014KT 20/07 A2995 RMK A01 T02020067  RH  041%=      5-min Rain = 0
KTH1 041701Z 25013KT 20/06 A2995 RMK A01 T02020061  RH  040%=      5-min Rain = 0
KTH1 041702Z 26012KT 20/06 A2995 RMK A01 T02020061  RH  040%=      5-min Rain = 0
KTH1 041703Z 26011KT 20/06 A2995 RMK A01 T02020062  RH  040%=      5-min Rain = 0
KTH1 041704Z 25010KT 20/06 A2995 RMK A01 T02020063  RH  040%=      5-min Rain = 0
KTH1 041705Z 23009KT 20/06 A2995 RMK A01 T02020063  RH  040%=      5-min Rain = 0
KTH1 041706Z 24012KT 20/06 A2995 RMK A01 T02040057  RH  038%=      5-min Rain = 0
KTH1 041707Z 25014KT 21/06 A2995 RMK A01 T02050058  RH  038%=      5-min Rain = 0
KTH1 041708Z 25013KT 20/06 A2995 RMK A01 T02040058  RH  038%=      5-min Rain = 0
KTH1 041709Z 26010KT 20/06 A2995 RMK A01 T02030058  RH  039%=      5-min Rain = 0
KTH1 041710Z 27011KT 20/07 A2995 RMK A01 T02020067  RH  041%=      5-min Rain = 0
KTH1 041711Z 27010KT 20/06 A2995 RMK A01 T02020061  RH  040%=      5-min Rain = 0
KTH1 041712Z 28009KT 20/06 A2994 RMK A01 T02040060  RH  039%=      5-min Rain = 0
KTH1 041713Z 26011KT 21/06 A2994 RMK A01 T02070060  RH  038%=      5-min Rain = 0
KTH1 041714Z 26013KT 21/06 A2994 RMK A01 T02090062  RH  038%=      5-min Rain = 0
KTH1 041715Z 25013KT 21/06 A2994 RMK A01 T02060063  RH  039%=      5-min Rain = 0
KTH1 041716Z 25012KT 20/06 A2994 RMK A01 T02040060  RH  039%=      5-min Rain = 0
KTH1 041717Z 25013KT 20/05 A2994 RMK A01 T02030053  RH  037%=      5-min Rain = 0
KTH1 041718Z 24011KT 20/06 A2994 RMK A01 T02030055  RH  038%=      5-min Rain = 0
KTH1 041719Z 25011KT 20/06 A2994 RMK A01 T02040055  RH  038%=      5-min Rain = 0
KTH1 041720Z 25012KT 20/06 A2994 RMK A01 T02030055  RH  038%=      5-min Rain = 0
KTH1 041721Z 26010KT 20/05 A2994 RMK A01 T02030054  RH  038%=      5-min Rain = 0
KTH1 041722Z 27008KT 20/06 A2994 RMK A01 T02040064  RH  040%=      5-min Rain = 0
KTH1 041723Z 25006KT 21/06 A2994 RMK A01 T02050064  RH  040%=      5-min Rain = 0
KTH1 041724Z 25008KT 21/06 A2994 RMK A01 T02080059  RH  038%=      5-min Rain = 0
KTH1 041725Z 26011KT 21/06 A2994 RMK A01 T02100060  RH  038%=      5-min Rain = 0
KTH1 041726Z 26010KT 21/06 A2994 RMK A01 T02090060  RH  038%=      5-min Rain = 0
KTH1 041727Z 26010KT 21/06 A2994 RMK A01 T02080059  RH  038%=      5-min Rain = 0
KTH1 041728Z 26007KT 21/06 A2994 RMK A01 T02090060  RH  038%=      5-min Rain = 0
KTH1 041729Z 24010KT 21/06 A2994 RMK A01 T02100063  RH  038%=      5-min Rain = 0
KTH1 041730Z 24007KT 21/06 A2994 RMK A01 T02100055  RH  036%=      5-min Rain = 0
KTH1 041731Z 24008KT 21/05 A2994 RMK A01 T02120051  RH  035%=      5-min Rain = 0
KTH1 041732Z 24009KT 21/05 A2994 RMK A01 T02130051  RH  035%=      5-min Rain = 0
KTH1 041733Z 27008KT 21/05 A2993 RMK A01 T02140053  RH  035%=      5-min Rain = 0
KTH1 041734Z 26007KT 21/06 A2993 RMK A01 T02140059  RH  036%=      5-min Rain = 0
KTH1 041735Z 25011KT 22/06 A2993 RMK A01 T02150059  RH  036%=      5-min Rain = 0
KTH1 041736Z 25010KT 21/05 A2993 RMK A01 T02130049  RH  034%=      5-min Rain = 0
KTH1 041737Z 25011KT 21/05 A2993 RMK A01 T02120054  RH  036%=      5-min Rain = 0
KTH1 041738Z 25007KT 21/06 A2993 RMK A01 T02120055  RH  036%=      5-min Rain = 0
KTH1 041739Z 25007KT 21/06 A2993 RMK A01 T02130055  RH  036%=      5-min Rain = 0
KTH1 041740Z 25011KT 21/06 A2993 RMK A01 T02140055  RH  036%=      5-min Rain = 0
KTH1 041741Z 25013KT 21/06 A2993 RMK A01 T02140060  RH  037%=      5-min Rain = 0
KTH1 041742Z 24009KT 21/06 A2993 RMK A01 T02120057  RH  036%=      5-min Rain = 0
KTH1 041743Z 25008KT 21/05 A2993 RMK A01 T02130053  RH  035%=      5-min Rain = 0
KTH1 041744Z 24008KT 21/05 A2993 RMK A01 T02140053  RH  035%=      5-min Rain = 0
KTH1 041745Z 24007KT 21/05 A2993 RMK A01 T02140050  RH  034%=      5-min Rain = 0
KTH1 041746Z 24007KT 22/05 A2993 RMK A01 T02150046  RH  033%=      5-min Rain = 0
KTH1 041747Z 25009KT 22/05 A2993 RMK A01 T02170053  RH  034%=      5-min Rain = 0
KTH1 041748Z 25008KT 22/05 A2993 RMK A01 T02170053  RH  034%=      5-min Rain = 0
KTH1 041749Z 24008KT 22/05 A2993 RMK A01 T02180054  RH  034%=      5-min Rain = 0
KTH1 041750Z 25010KT 22/06 A2993 RMK A01 T02190055  RH  035%=      5-min Rain = 0
KTH1 041751Z 26006KT 22/05 A2993 RMK A01 T02200054  RH  034%=      5-min Rain = 0
KTH1 041752Z 26005KT 22/06 A2993 RMK A01 T02210056  RH  034%=      5-min Rain = 0
KTH1 041753Z 24006KT 22/05 A2993 RMK A01 T02220051  RH  033%=      5-min Rain = 0
KTH1 041754Z 25007KT 22/05 A2993 RMK A01 T02230050  RH  032%=      5-min Rain = 0
KTH1 041755Z 27008KT 22/05 A2993 RMK A01 T02240053  RH  033%=      5-min Rain = 0
KTH1 041756Z 27008KT 23/06 A2993 RMK A01 T02250064  RH  035%=      5-min Rain = 0
KTH1 041757Z 24008KT 23/06 A2993 RMK A01 T02260063  RH  035%=      5-min Rain = 0
KTH1 041758Z 24006KT 22/06 A2993 RMK A01 T02240056  RH  034%=      5-min Rain = 0
KTH1 041759Z 25007KT 22/05 A2993 RMK A01 T02230054  RH  033%=      5-min Rain = 0
KTH1 041800Z 24006KT 22/05 A2993 RMK A01 T02240054  RH  033%=      5-min Rain = 0
KTH1 041801Z 25007KT 22/06 A2993 RMK A01 T02230056  RH  034%=      5-min Rain = 0
KTH1 041802Z 25009KT 22/06 A2993 RMK A01 T02230059  RH  034%=      5-min Rain = 0
KTH1 041803Z 25009KT 22/07 A2993 RMK A01 T02230065  RH  036%=      5-min Rain = 0
KTH1 041804Z 25010KT 22/06 A2993 RMK A01 T02230064  RH  036%=      5-min Rain = 0
KTH1 041805Z 25010KT 22/07 A2993 RMK A01 T02240065  RH  036%=      5-min Rain = 0
KTH1 041806Z 26009KT 22/06 A2993 RMK A01 T02220058  RH  034%=      5-min Rain = 0
KTH1 041807Z 26007KT 22/06 A2992 RMK A01 T02210060  RH  035%=      5-min Rain = 0
KTH1 041808Z 27006KT 22/06 A2992 RMK A01 T02230061  RH  035%=      5-min Rain = 0
KTH1 041809Z 26006KT 22/06 A2992 RMK A01 T02240064  RH  036%=      5-min Rain = 0
KTH1 041810Z 26006KT 22/06 A2992 RMK A01 T02230063  RH  035%=      5-min Rain = 0
KTH1 041811Z 26005KT 23/06 A2992 RMK A01 T02250055  RH  033%=      5-min Rain = 0
KTH1 041812Z 26006KT 23/05 A2992 RMK A01 T02280050  RH  031%=      5-min Rain = 0
KTH1 041813Z 26008KT 23/05 A2992 RMK A01 T02300053  RH  032%=      5-min Rain = 0
KTH1 041814Z 25010KT 23/06 A2992 RMK A01 T02300056  RH  032%=      5-min Rain = 0
KTH1 041815Z 24009KT 23/06 A2992 RMK A01 T02270057  RH  033%=      5-min Rain = 0
KTH1 041816Z 24008KT 23/05 A2992 RMK A01 T02260052  RH  032%=      5-min Rain = 0
KTH1 041817Z 23006KT 23/05 A2992 RMK A01 T02270049  RH  031%=      5-min Rain = 0
KTH1 041818Z 23004KT 23/05 A2992 RMK A01 T02300049  RH  031%=      5-min Rain = 0
KTH1 041819Z 24008KT 23/05 A2992 RMK A01 T02330050  RH  030%=      5-min Rain = 0
KTH1 041820Z 24008KT 24/05 A2992 RMK A01 T02350050  RH  030%=      5-min Rain = 0
KTH1 041821Z 24008KT 24/05 A2992 RMK A01 T02350049  RH  030%=      5-min Rain = 0
KTH1 041822Z 25007KT 23/05 A2992 RMK A01 T02340048  RH  030%=      5-min Rain = 0
KTH1 041823Z 25008KT 23/05 A2992 RMK A01 T02340051  RH  031%=      5-min Rain = 0
KTH1 041824Z 24009KT 23/05 A2991 RMK A01 T02330053  RH  031%=      5-min Rain = 0
KTH1 041825Z 24008KT 23/05 A2991 RMK A01 T02320049  RH  030%=      5-min Rain = 0
KTH1 041826Z 24007KT 23/05 A2991 RMK A01 T02330049  RH  030%=      5-min Rain = 0
KTH1 041827Z 25009KT 23/05 A2991 RMK A01 T02340048  RH  030%=      5-min Rain = 0
KTH1 041828Z 26007KT 23/05 A2991 RMK A01 T02330051  RH  031%=      5-min Rain = 0
KTH1 041829Z 25005KT 23/05 A2991 RMK A01 T02310047  RH  030%=      5-min Rain = 0
KTH1 041830Z 26006KT 23/05 A2991 RMK A01 T02320049  RH  030%=      5-min Rain = 0
KTH1 041831Z 27006KT 23/05 A2991 RMK A01 T02340051  RH  030%=      5-min Rain = 0
KTH1 041832Z 23008KT 24/05 A2991 RMK A01 T02360052  RH  030%=      5-min Rain = 0
KTH1 041833Z 26008KT 24/05 A2991 RMK A01 T02350049  RH  030%=      5-min Rain = 0
KTH1 041834Z 26007KT 24/05 A2991 RMK A01 T02360054  RH  031%=      5-min Rain = 0
KTH1 041835Z 25008KT 24/05 A2991 RMK A01 T02370054  RH  031%=      5-min Rain = 0
KTH1 041836Z 24007KT 24/06 A2991 RMK A01 T02370056  RH  031%=      5-min Rain = 0
KTH1 041837Z 24007KT 24/05 A2991 RMK A01 T02360051  RH  030%=      5-min Rain = 0
KTH1 041838Z 23005KT 24/05 A2991 RMK A01 T02360047  RH  029%=      5-min Rain = 0
KTH1 041839Z 24005KT 24/05 A2991 RMK A01 T02390047  RH  029%=      5-min Rain = 0
KTH1 041840Z 24007KT 24/05 A2991 RMK A01 T02410048  RH  029%=      5-min Rain = 0
KTH1 041841Z 24006KT 24/05 A2991 RMK A01 T02410049  RH  029%=      5-min Rain = 0
KTH1 041842Z 24004KT 24/05 A2991 RMK A01 T02410049  RH  029%=      5-min Rain = 0
KTH1 041843Z 25005KT 24/05 A2991 RMK A01 T02420047  RH  028%=      5-min Rain = 0
KTH1 041844Z 25007KT 24/05 A2991 RMK A01 T02420050  RH  029%=      5-min Rain = 0
KTH1 041845Z 24007KT 24/06 A2991 RMK A01 T02410056  RH  030%=      5-min Rain = 0
KTH1 041846Z 27007KT 24/05 A2991 RMK A01 T02400051  RH  030%=      5-min Rain = 0
KTH1 041847Z 28006KT 24/05 A2991 RMK A01 T02400050  RH  029%=      5-min Rain = 0
KTH1 041848Z 26008KT 24/05 A299 RMK A01 T02420054  RH  030%=      5-min Rain = 0
KTH1 041849Z 26007KT 24/06 A299 RMK A01 T02430057  RH  030%=      5-min Rain = 0
KTH1 041850Z 24006KT 24/06 A299 RMK A01 T02430056  RH  030%=      5-min Rain = 0
KTH1 041851Z 25005KT 24/05 A299 RMK A01 T02410049  RH  029%=      5-min Rain = 0
KTH1 041852Z 25006KT 24/05 A299 RMK A01 T02420045  RH  028%=      5-min Rain = 0
KTH1 041853Z 23006KT 24/04 A299 RMK A01 T02430043  RH  027%=      5-min Rain = 0
KTH1 041854Z 25007KT 24/05 A299 RMK A01 T02440046  RH  028%=      5-min Rain = 0
KTH1 041855Z 25005KT 24/05 A299 RMK A01 T02440047  RH  028%=      5-min Rain = 0
KTH1 041856Z 25006KT 24/05 A299 RMK A01 T02440047  RH  028%=      5-min Rain = 0
KTH1 041857Z 25005KT 25/05 A299 RMK A01 T02450047  RH  028%=      5-min Rain = 0
KTH1 041858Z 25006KT 25/05 A299 RMK A01 T02450047  RH  028%=      5-min Rain = 0
KTH1 041859Z 27005KT 25/05 A299 RMK A01 T02450048  RH  028%=      5-min Rain = 0
KTH1 041900Z 25004KT 25/05 A299 RMK A01 T02450046  RH  028%=      5-min Rain = 0
KTH1 041901Z 25005KT 25/05 A299 RMK A01 T02470048  RH  028%=      5-min Rain = 0
KTH1 041902Z 26006KT 25/05 A299 RMK A01 T02490053  RH  028%=      5-min Rain = 0
KTH1 041903Z 25006KT 25/05 A2989 RMK A01 T02480050  RH  028%=      5-min Rain = 0
KTH1 041904Z 25007KT 25/05 A2989 RMK A01 T02470053  RH  029%=      5-min Rain = 0
KTH1 041905Z 24005KT 25/05 A2989 RMK A01 T02450050  RH  028%=      5-min Rain = 0
KTH1 041906Z 24003KT 24/05 A2989 RMK A01 T02440048  RH  028%=      5-min Rain = 0
KTH1 041907Z 25003KT 25/05 A2989 RMK A01 T02450048  RH  028%=      5-min Rain = 0
KTH1 041908Z 25003KT 25/05 A2989 RMK A01 T02470048  RH  028%=      5-min Rain = 0
KTH1 041909Z 25007KT 25/05 A2989 RMK A01 T02470048  RH  028%=      5-min Rain = 0
KTH1 041910Z 27006KT 25/05 A2989 RMK A01 T02470052  RH  029%=      5-min Rain = 0
KTH1 041911Z 27005KT 25/06 A2989 RMK A01 T02470061  RH  030%=      5-min Rain = 0
KTH1 041912Z 27006KT 25/06 A2989 RMK A01 T02460062  RH  031%=      5-min Rain = 0
KTH1 041913Z 25007KT 25/06 A2989 RMK A01 T02460057  RH  030%=      5-min Rain = 0
KTH1 041914Z 27006KT 25/06 A2989 RMK A01 T02460062  RH  031%=      5-min Rain = 0
KTH1 041915Z 27005KT 25/07 A2989 RMK A01 T02480066  RH  031%=      5-min Rain = 0
KTH1 041916Z 26005KT 25/06 A2989 RMK A01 T02500057  RH  029%=      5-min Rain = 0
KTH1 041917Z 27004KT 25/06 A2989 RMK A01 T02500058  RH  029%=      5-min Rain = 0
KTH1 041918Z 29003KT 25/06 A2989 RMK A01 T02500061  RH  030%=      5-min Rain = 0
KTH1 041919Z 31005KT 25/06 A2989 RMK A01 T02500061  RH  030%=      5-min Rain = 0
KTH1 041920Z 31005KT 25/05 A2989 RMK A01 T02490049  RH  028%=      5-min Rain = 0
KTH1 041921Z 31002KT 25/04 A2989 RMK A01 T02490042  RH  026%=      5-min Rain = 0
KTH1 041922Z 31001KT 25/04 A2989 RMK A01 T02510043  RH  026%=      5-min Rain = 0
KTH1 041923Z 35005KT 25/05 A2989 RMK A01 T02540045  RH  026%=      5-min Rain = 0
KTH1 041924Z 35004KT 26/04 A2989 RMK A01 T02560042  RH  025%=      5-min Rain = 0
KTH1 041925Z 35003KT 26/04 A2989 RMK A01 T02560043  RH  025%=      5-min Rain = 0
KTH1 041926Z 32004KT 26/04 A2989 RMK A01 T02580043  RH  025%=      5-min Rain = 0
KTH1 041927Z 30007KT 26/05 A2989 RMK A01 T02590047  RH  026%=      5-min Rain = 0
KTH1 041928Z 28005KT 26/05 A2989 RMK A01 T02590054  RH  027%=      5-min Rain = 0
KTH1 041929Z 30004KT 26/05 A2989 RMK A01 T02590050  RH  026%=      5-min Rain = 0
KTH1 041930Z 29001KT 26/05 A2989 RMK A01 T02590049  RH  026%=      5-min Rain = 0
KTH1 041931Z 28003KT 26/05 A2989 RMK A01 T02590049  RH  026%=      5-min Rain = 0
KTH1 041932Z 29003KT 26/05 A2989 RMK A01 T02590050  RH  026%=      5-min Rain = 0
KTH1 041933Z 28005KT 26/05 A2989 RMK A01 T02590051  RH  026%=      5-min Rain = 0
KTH1 041934Z 29008KT 26/05 A2989 RMK A01 T02580052  RH  027%=      5-min Rain = 0
KTH1 041935Z 28011KT 26/05 A2989 RMK A01 T02570050  RH  026%=      5-min Rain = 0
KTH1 041936Z 28008KT 26/04 A2989 RMK A01 T02560044  RH  025%=      5-min Rain = 0
KTH1 041937Z 30009KT 26/05 A2989 RMK A01 T02550049  RH  027%=      5-min Rain = 0
KTH1 041938Z 30005KT 25/04 A2989 RMK A01 T02520044  RH  026%=      5-min Rain = 0
KTH1 041939Z 29006KT 25/05 A2989 RMK A01 T02510047  RH  027%=      5-min Rain = 0
KTH1 041940Z 27004KT 25/04 A2989 RMK A01 T02520042  RH  026%=      5-min Rain = 0
KTH1 041941Z 26004KT 25/04 A2989 RMK A01 T02530038  RH  025%=      5-min Rain = 0
KTH1 041942Z 29004KT 25/04 A2989 RMK A01 T02530039  RH  025%=      5-min Rain = 0
KTH1 041943Z 30003KT 25/05 A2989 RMK A01 T02540045  RH  026%=      5-min Rain = 0
KTH1 041944Z 30004KT 26/05 A2989 RMK A01 T02550046  RH  026%=      5-min Rain = 0
KTH1 041945Z 30006KT 26/05 A2989 RMK A01 T02550047  RH  026%=      5-min Rain = 0
KTH1 041946Z 29007KT 26/05 A2989 RMK A01 T02550046  RH  026%=      5-min Rain = 0
KTH1 041947Z 29007KT 26/05 A2989 RMK A01 T02550046  RH  026%=      5-min Rain = 0
KTH1 041948Z 31010KT 26/05 A2989 RMK A01 T02560050  RH  027%=      5-min Rain = 0
KTH1 041949Z 28004KT 26/04 A2989 RMK A01 T02560044  RH  026%=      5-min Rain = 0
KTH1 041950Z 28005KT 26/05 A2989 RMK A01 T02560047  RH  026%=      5-min Rain = 0
KTH1 041951Z 31006KT 26/05 A2989 RMK A01 T02560046  RH  026%=      5-min Rain = 0
KTH1 041952Z 32006KT 26/04 A2989 RMK A01 T02570041  RH  025%=      5-min Rain = 0
KTH1 041953Z 32007KT 26/04 A2989 RMK A01 T02570041  RH  025%=      5-min Rain = 0
KTH1 041954Z 30005KT 26/04 A2989 RMK A01 T02580037  RH  024%=      5-min Rain = 0
KTH1 041955Z 29007KT 26/04 A2989 RMK A01 T02570043  RH  025%=      5-min Rain = 0
KTH1 041956Z 29007KT 26/05 A2989 RMK A01 T02560045  RH  026%=      5-min Rain = 0
KTH1 041957Z 31006KT 26/05 A2989 RMK A01 T02560046  RH  026%=      5-min Rain = 0
KTH1 041958Z 30008KT 26/05 A2989 RMK A01 T02560047  RH  026%=      5-min Rain = 0
KTH1 041959Z 28006KT 26/05 A2989 RMK A01 T02560047  RH  026%=      5-min Rain = 0
KTH1 042000Z 29004KT 26/05 A2989 RMK A01 T02560046  RH  026%=      5-min Rain = 0
KTH1 042001Z 30007KT 26/05 A2989 RMK A01 T02560050  RH  026%=      5-min Rain = 0
KTH1 042002Z 31007KT 25/05 A2989 RMK A01 T02540045  RH  026%=      5-min Rain = 0
KTH1 042003Z 29006KT 25/04 A2989 RMK A01 T02530040  RH  025%=      5-min Rain = 0
KTH1 042004Z 28008KT 25/04 A2989 RMK A01 T02540042  RH  025%=      5-min Rain = 0
KTH1 042005Z 27006KT 26/05 A2989 RMK A01 T02560045  RH  026%=      5-min Rain = 0
KTH1 042006Z 31004KT 26/05 A2989 RMK A01 T02590047  RH  025%=      5-min Rain = 0
KTH1 042007Z 29009KT 26/05 A2989 RMK A01 T02600047  RH  026%=      5-min Rain = 0
KTH1 042008Z 32009KT 26/04 A2989 RMK A01 T02580042  RH  025%=      5-min Rain = 0
KTH1 042009Z 34006KT 26/04 A2989 RMK A01 T02560035  RH  024%=      5-min Rain = 0
KTH1 042010Z 33003KT 26/03 A2989 RMK A01 T02550030  RH  023%=      5-min Rain = 0
KTH1 042011Z 34007KT 26/03 A2989 RMK A01 T02570030  RH  023%=      5-min Rain = 0
KTH1 042012Z 33006KT 26/03 A2989 RMK A01 T02580026  RH  022%=      5-min Rain = 0
KTH1 042013Z 29010KT 26/03 A2989 RMK A01 T02570031  RH  023%=      5-min Rain = 0
KTH1 042014Z 31007KT 26/04 A2989 RMK A01 T02570037  RH  024%=      5-min Rain = 0
KTH1 042015Z 31004KT 26/04 A2989 RMK A01 T02580036  RH  024%=      5-min Rain = 0
KTH1 042016Z 32007KT 26/04 A2989 RMK A01 T02580041  RH  025%=      5-min Rain = 0
KTH1 042017Z 31006KT 26/04 A2989 RMK A01 T02570035  RH  024%=      5-min Rain = 0
KTH1 042018Z 33007KT 26/03 A2989 RMK A01 T02570031  RH  023%=      5-min Rain = 0
KTH1 042019Z 31009KT 26/02 A2989 RMK A01 T02560024  RH  022%=      5-min Rain = 0
KTH1 042020Z 32008KT 26/02 A2989 RMK A01 T02560023  RH  022%=      5-min Rain = 0
KTH1 042021Z 34006KT 26/03 A2989 RMK A01 T02570025  RH  022%=      5-min Rain = 0
KTH1 042022Z 33006KT 26/02 A2989 RMK A01 T02580020  RH  021%=      5-min Rain = 0
KTH1 042023Z 32003KT 26/02 A2989 RMK A01 T02580020  RH  021%=      5-min Rain = 0
KTH1 042024Z 31004KT 26/02 A2989 RMK A01 T02590023  RH  022%=      5-min Rain = 0
KTH1 042025Z 31007KT 26/03 A2989 RMK A01 T02590026  RH  022%=      5-min Rain = 0
KTH1 042026Z 31011KT 26/03 A2989 RMK A01 T02600033  RH  023%=      5-min Rain = 0
KTH1 042027Z 30006KT 26/03 A2989 RMK A01 T02580027  RH  022%=      5-min Rain = 0
KTH1 042028Z 29005KT 26/03 A2989 RMK A01 T02570026  RH  022%=      5-min Rain = 0
KTH1 042029Z 30009KT 26/03 A2989 RMK A01 T02560032  RH  023%=      5-min Rain = 0
KTH1 042030Z 31009KT 26/04 A2989 RMK A01 T02550037  RH  024%=      5-min Rain = 0
KTH1 042031Z 31008KT 25/03 A2989 RMK A01 T02540029  RH  023%=      5-min Rain = 0
KTH1 042032Z 29009KT 25/04 A2989 RMK A01 T02530035  RH  024%=      5-min Rain = 0
KTH1 042033Z 29008KT 25/03 A2989 RMK A01 T02540033  RH  024%=      5-min Rain = 0
KTH1 042034Z 28005KT 26/03 A2989 RMK A01 T02550026  RH  023%=      5-min Rain = 0
KTH1 042035Z 29006KT 26/03 A2989 RMK A01 T02570033  RH  024%=      5-min Rain = 0
KTH1 042036Z 31008KT 26/03 A2989 RMK A01 T02580031  RH  023%=      5-min Rain = 0
KTH1 042037Z 31006KT 26/01 A2989 RMK A01 T02580014  RH  020%=      5-min Rain = 0
KTH1 042038Z 29006KT 26/01 A2989 RMK A01 T02570012  RH  020%=      5-min Rain = 0
KTH1 042039Z 30007KT 26/02 A2989 RMK A01 T02570023  RH  022%=      5-min Rain = 0
KTH1 042040Z 31007KT 26/03 A2989 RMK A01 T02580029  RH  023%=      5-min Rain = 0
KTH1 042041Z 31004KT 26/02 A299 RMK A01 T02570019  RH  021%=      5-min Rain = 0
KTH1 042042Z 31003KT 26/02 A299 RMK A01 T02570016  RH  021%=      5-min Rain = 0
KTH1 042043Z 31006KT 26/02 A299 RMK A01 T02590021  RH  021%=      5-min Rain = 0
KTH1 042044Z 31007KT 26/02 A299 RMK A01 T02600023  RH  021%=      5-min Rain = 0
KTH1 042045Z 34005KT 26/02 A299 RMK A01 T02600019  RH  021%=      5-min Rain = 0
KTH1 042046Z 33005KT 26/01 A299 RMK A01 T02590014  RH  020%=      5-min Rain = 0
KTH1 042047Z 32006KT 26/02 A299 RMK A01 T02590016  RH  020%=      5-min Rain = 0
KTH1 042048Z 32006KT 26/02 A299 RMK A01 T02590015  RH  020%=      5-min Rain = 0
KTH1 042049Z 32006KT 26/02 A299 RMK A01 T02610016  RH  020%=      5-min Rain = 0
KTH1 042050Z 31004KT 26/01 A299 RMK A01 T02610012  RH  020%=      5-min Rain = 0
KTH1 042051Z 32003KT 26/01 A299 RMK A01 T02600013  RH  020%=      5-min Rain = 0
KTH1 042052Z 34002KT 26/01 A299 RMK A01 T02600013  RH  020%=      5-min Rain = 0
KTH1 042053Z 35004KT 26/02 A299 RMK A01 T02620016  RH  020%=      5-min Rain = 0
KTH1 042054Z 33003KT 26/01 A299 RMK A01 T02630013  RH  020%=      5-min Rain = 0
KTH1 042055Z 31006KT 26/01 A299 RMK A01 T02630014  RH  020%=      5-min Rain = 0
KTH1 042056Z 30005KT 26/01 A299 RMK A01 T02620013  RH  020%=      5-min Rain = 0
KTH1 042057Z 29006KT 26/02 A299 RMK A01 T02610022  RH  021%=      5-min Rain = 0
KTH1 042058Z 29007KT 26/03 A299 RMK A01 T02610028  RH  022%=      5-min Rain = 0
KTH1 042059Z 29006KT 26/02 A299 RMK A01 T02620024  RH  021%=      5-min Rain = 0
KTH1 042100Z 31004KT 26/02 A299 RMK A01 T02620016  RH  020%=      5-min Rain = 0
KTH1 042101Z 33004KT 26/02 A299 RMK A01 T02600019  RH  021%=      5-min Rain = 0
KTH1 042102Z 32006KT 26/02 A299 RMK A01 T02590019  RH  021%=      5-min Rain = 0
KTH1 042103Z 33005KT 26/02 A299 RMK A01 T02590021  RH  021%=      5-min Rain = 0
KTH1 042104Z 32007KT 26/02 A299 RMK A01 T02600024  RH  022%=      5-min Rain = 0
KTH1 042105Z 31008KT 26/03 A299 RMK A01 T02600025  RH  022%=      5-min Rain = 0
KTH1 042106Z 31007KT 26/02 A299 RMK A01 T02590020  RH  021%=      5-min Rain = 0
KTH1 042107Z 32005KT 26/02 A299 RMK A01 T02570019  RH  021%=      5-min Rain = 0
KTH1 042108Z 32005KT 26/02 A299 RMK A01 T02570024  RH  022%=      5-min Rain = 0
KTH1 042109Z 35006KT 26/02 A299 RMK A01 T02570020  RH  021%=      5-min Rain = 0
KTH1 042110Z 34007KT 26/02 A299 RMK A01 T02580019  RH  021%=      5-min Rain = 0
KTH1 042111Z 32007KT 26/02 A299 RMK A01 T02570019  RH  021%=      5-min Rain = 0
KTH1 042112Z 32007KT 26/03 A299 RMK A01 T02570026  RH  022%=      5-min Rain = 0
KTH1 042113Z 32005KT 26/03 A299 RMK A01 T02570027  RH  022%=      5-min Rain = 0
KTH1 042114Z 31007KT 26/02 A299 RMK A01 T02580021  RH  021%=      5-min Rain = 0
KTH1 042115Z 32006KT 26/03 A299 RMK A01 T02570028  RH  023%=      5-min Rain = 0
KTH1 042116Z 34005KT 26/02 A299 RMK A01 T02560023  RH  022%=      5-min Rain = 0
KTH1 042117Z 35008KT 26/02 A299 RMK A01 T02550020  RH  022%=      5-min Rain = 0
KTH1 042118Z 35008KT 26/02 A299 RMK A01 T02550018  RH  021%=      5-min Rain = 0
KTH1 042119Z 36008KT 26/02 A299 RMK A01 T02550018  RH  021%=      5-min Rain = 0
KTH1 042120Z 35007KT 26/02 A299 RMK A01 T02550021  RH  022%=      5-min Rain = 0
KTH1 042121Z 35010KT 26/02 A299 RMK A01 T02550022  RH  022%=      5-min Rain = 0
KTH1 042122Z 36010KT 25/02 A299 RMK A01 T02540019  RH  022%=      5-min Rain = 0
KTH1 042123Z 36008KT 25/02 A299 RMK A01 T02520018  RH  022%=      5-min Rain = 0
KTH1 042124Z 36007KT 25/02 A299 RMK A01 T02520019  RH  022%=      5-min Rain = 0
KTH1 042125Z 36007KT 25/02 A299 RMK A01 T02510020  RH  022%=      5-min Rain = 0
KTH1 042126Z 00006KT 25/02 A299 RMK A01 T02520019  RH  022%=      5-min Rain = 0
KTH1 042127Z 01005KT 25/02 A299 RMK A01 T02520019  RH  022%=      5-min Rain = 0
KTH1 042128Z 35009KT 25/02 A299 RMK A01 T02530020  RH  022%=      5-min Rain = 0
KTH1 042129Z 34007KT 25/02 A299 RMK A01 T02540019  RH  022%=      5-min Rain = 0
KTH1 042130Z 34006KT 25/02 A299 RMK A01 T02530019  RH  022%=      5-min Rain = 0
KTH1 042131Z 34005KT 25/02 A299 RMK A01 T02530021  RH  022%=      5-min Rain = 0
KTH1 042132Z 34006KT 25/02 A299 RMK A01 T02530021  RH  022%=      5-min Rain = 0
KTH1 042133Z 34006KT 25/02 A299 RMK A01 T02540021  RH  022%=      5-min Rain = 0
KTH1 042134Z 34005KT 25/02 A299 RMK A01 T02540020  RH  022%=      5-min Rain = 0
KTH1 042135Z 33007KT 25/02 A299 RMK A01 T02540020  RH  022%=      5-min Rain = 0
KTH1 042136Z 35007KT 25/02 A299 RMK A01 T02530020  RH  022%=      5-min Rain = 0
KTH1 042137Z 34007KT 25/02 A299 RMK A01 T02540021  RH  022%=      5-min Rain = 0
KTH1 042138Z 35007KT 25/02 A299 RMK A01 T02530022  RH  022%=      5-min Rain = 0
KTH1 042139Z 35008KT 25/02 A299 RMK A01 T02530024  RH  023%=      5-min Rain = 0
KTH1 042140Z 35007KT 25/02 A299 RMK A01 T02520024  RH  023%=      5-min Rain = 0
KTH1 042141Z 36007KT 25/03 A299 RMK A01 T02520025  RH  023%=      5-min Rain = 0
KTH1 042142Z 35006KT 25/02 A299 RMK A01 T02520024  RH  023%=      5-min Rain = 0
KTH1 042143Z 34007KT 25/02 A299 RMK A01 T02520023  RH  023%=      5-min Rain = 0
KTH1 042144Z 34007KT 25/02 A299 RMK A01 T02510024  RH  023%=      5-min Rain = 0
KTH1 042145Z 34007KT 25/03 A299 RMK A01 T02520025  RH  023%=      5-min Rain = 0
KTH1 042146Z 35007KT 25/02 A2991 RMK A01 T02510024  RH  023%=      5-min Rain = 0
KTH1 042147Z 35006KT 25/02 A299 RMK A01 T02510023  RH  023%=      5-min Rain = 0
KTH1 042148Z 35005KT 25/02 A299 RMK A01 T02510023  RH  023%=      5-min Rain = 0
KTH1 042149Z 35007KT 25/02 A299 RMK A01 T02510023  RH  023%=      5-min Rain = 0
KTH1 042150Z 35007KT 25/02 A2991 RMK A01 T02510022  RH  022%=      5-min Rain = 0
KTH1 042151Z 31005KT 25/03 A2991 RMK A01 T02500025  RH  023%=      5-min Rain = 0
KTH1 042152Z 31007KT 25/03 A2991 RMK A01 T02500031  RH  024%=      5-min Rain = 0
KTH1 042153Z 31007KT 25/03 A2991 RMK A01 T02480033  RH  025%=      5-min Rain = 0
KTH1 042154Z 31007KT 25/03 A2991 RMK A01 T02460034  RH  025%=      5-min Rain = 0
KTH1 042155Z 33006KT 25/03 A2991 RMK A01 T02450032  RH  025%=      5-min Rain = 0
KTH1 042156Z 33007KT 25/03 A2991 RMK A01 T02450031  RH  025%=      5-min Rain = 0
KTH1 042157Z 33008KT 25/03 A2991 RMK A01 T02460028  RH  024%=      5-min Rain = 0
KTH1 042158Z 32009KT 25/03 A2991 RMK A01 T02460029  RH  024%=      5-min Rain = 0
KTH1 042159Z 32007KT 25/03 A2991 RMK A01 T02460031  RH  025%=      5-min Rain = 0
KTH1 042200Z 33006KT 25/03 A2991 RMK A01 T02460032  RH  025%=      5-min Rain = 0
KTH1 042201Z 34007KT 25/03 A2991 RMK A01 T02460032  RH  025%=      5-min Rain = 0
KTH1 042202Z 35006KT 25/03 A2991 RMK A01 T02460030  RH  025%=      5-min Rain = 0
KTH1 042203Z 35007KT 25/03 A2991 RMK A01 T02460029  RH  024%=      5-min Rain = 0
KTH1 042204Z 33004KT 25/03 A2991 RMK A01 T02460033  RH  025%=      5-min Rain = 0
KTH1 042205Z 33007KT 25/04 A2991 RMK A01 T02460035  RH  025%=      5-min Rain = 0
KTH1 042206Z 33008KT 25/03 A2991 RMK A01 T02460033  RH  025%=      5-min Rain = 0
KTH1 042207Z 32007KT 25/03 A2991 RMK A01 T02460032  RH  025%=      5-min Rain = 0
KTH1 042208Z 34006KT 25/03 A2991 RMK A01 T02450032  RH  025%=      5-min Rain = 0
KTH1 042209Z 32005KT 25/03 A2991 RMK A01 T02450033  RH  025%=      5-min Rain = 0
KTH1 042210Z 33004KT 25/03 A2991 RMK A01 T02450034  RH  025%=      5-min Rain = 0
KTH1 042211Z 33006KT 25/04 A2991 RMK A01 T02450035  RH  025%=      5-min Rain = 0
KTH1 042212Z 33005KT 25/03 A2991 RMK A01 T02450033  RH  025%=      5-min Rain = 0
KTH1 042213Z 33006KT 25/03 A2991 RMK A01 T02450031  RH  025%=      5-min Rain = 0
KTH1 042214Z 34006KT 24/03 A2991 RMK A01 T02440031  RH  025%=      5-min Rain = 0
KTH1 042215Z 33006KT 24/03 A2991 RMK A01 T02440031  RH  025%=      5-min Rain = 0
KTH1 042216Z 32007KT 24/03 A2991 RMK A01 T02430033  RH  025%=      5-min Rain = 0
KTH1 042217Z 32007KT 24/03 A2991 RMK A01 T02420030  RH  025%=      5-min Rain = 0
KTH1 042218Z 33007KT 24/03 A2992 RMK A01 T02420032  RH  026%=      5-min Rain = 0
KTH1 042219Z 32007KT 24/03 A2992 RMK A01 T02420032  RH  025%=      5-min Rain = 0
KTH1 042220Z 33007KT 24/03 A2992 RMK A01 T02420030  RH  025%=      5-min Rain = 0
KTH1 042221Z 33006KT 24/03 A2992 RMK A01 T02420031  RH  025%=      5-min Rain = 0
KTH1 042222Z 33006KT 24/03 A2992 RMK A01 T02420032  RH  025%=      5-min Rain = 0
KTH1 042223Z 34007KT 24/03 A2992 RMK A01 T02420031  RH  025%=      5-min Rain = 0
KTH1 042224Z 33005KT 24/03 A2992 RMK A01 T02400033  RH  026%=      5-min Rain = 0
KTH1 042225Z 34005KT 24/03 A2992 RMK A01 T02400033  RH  026%=      5-min Rain = 0
KTH1 042226Z 35006KT 24/03 A2992 RMK A01 T02400031  RH  026%=      5-min Rain = 0
KTH1 042227Z 34007KT 24/03 A2992 RMK A01 T02400030  RH  025%=      5-min Rain = 0
KTH1 042228Z 34006KT 24/03 A2992 RMK A01 T02390030  RH  026%=      5-min Rain = 0
KTH1 042229Z 34006KT 24/03 A2992 RMK A01 T02390030  RH  026%=      5-min Rain = 0
KTH1 042230Z 34004KT 24/03 A2992 RMK A01 T02380031  RH  026%=      5-min Rain = 0
KTH1 042231Z 34006KT 24/03 A2992 RMK A01 T02390032  RH  026%=      5-min Rain = 0
KTH1 042232Z 34008KT 24/03 A2992 RMK A01 T02390032  RH  026%=      5-min Rain = 0
KTH1 042233Z 35008KT 24/03 A2992 RMK A01 T02380033  RH  026%=      5-min Rain = 0
KTH1 042234Z 35006KT 24/04 A2992 RMK A01 T02370035  RH  027%=      5-min Rain = 0
KTH1 042235Z 35008KT 24/04 A2992 RMK A01 T02360036  RH  027%=      5-min Rain = 0
KTH1 042236Z 35008KT 24/03 A2992 RMK A01 T02360034  RH  027%=      5-min Rain = 0
KTH1 042237Z 35006G11KT 24/04 A2992 RMK A01 T02350035  RH  027%=      5-min Rain = 0
KTH1 042238Z 36006KT 24/04 A2992 RMK A01 T02350037  RH  027%=      5-min Rain = 0
KTH1 042239Z 35008KT 24/04 A2992 RMK A01 T02350036  RH  027%=      5-min Rain = 0
KTH1 042240Z 34007KT 24/04 A2992 RMK A01 T02350035  RH  027%=      5-min Rain = 0
KTH1 042241Z 35006KT 23/03 A2992 RMK A01 T02340034  RH  027%=      5-min Rain = 0
KTH1 042242Z 34006KT 23/03 A2992 RMK A01 T02340034  RH  027%=      5-min Rain = 0
KTH1 042243Z 35007KT 23/04 A2992 RMK A01 T02330035  RH  027%=      5-min Rain = 0
KTH1 042244Z 35008KT 23/04 A2992 RMK A01 T02330035  RH  027%=      5-min Rain = 0
KTH1 042245Z 00006KT 23/03 A2992 RMK A01 T02320033  RH  027%=      5-min Rain = 0
KTH1 042246Z 00005KT 23/03 A2992 RMK A01 T02320034  RH  027%=      5-min Rain = 0
KTH1 042247Z 36006KT 23/03 A2992 RMK A01 T02320034  RH  027%=      5-min Rain = 0
KTH1 042248Z 34007KT 23/03 A2992 RMK A01 T02310033  RH  027%=      5-min Rain = 0
KTH1 042249Z 35006KT 23/04 A2992 RMK A01 T02310035  RH  028%=      5-min Rain = 0
KTH1 042250Z 34007KT 23/04 A2992 RMK A01 T02310035  RH  028%=      5-min Rain = 0
KTH1 042251Z 33007KT 23/03 A2992 RMK A01 T02300034  RH  028%=      5-min Rain = 0
KTH1 042252Z 35007KT 23/04 A2993 RMK A01 T02300035  RH  028%=      5-min Rain = 0
KTH1 042253Z 35007KT 23/04 A2993 RMK A01 T02300035  RH  028%=      5-min Rain = 0
KTH1 042254Z 35007KT 23/03 A2993 RMK A01 T02290034  RH  028%=      5-min Rain = 0
KTH1 042255Z 34005KT 23/04 A2993 RMK A01 T02290035  RH  028%=      5-min Rain = 0
KTH1 042256Z 35007KT 23/04 A2993 RMK A01 T02290037  RH  028%=      5-min Rain = 0
KTH1 042257Z 35007KT 23/03 A2993 RMK A01 T02280034  RH  028%=      5-min Rain = 0
KTH1 042258Z 34006KT 23/04 A2993 RMK A01 T02280036  RH  028%=      5-min Rain = 0
KTH1 042259Z 34006KT 23/04 A2993 RMK A01 T02270036  RH  029%=      5-min Rain = 0
KTH1 042300Z 36007KT 23/04 A2993 RMK A01 T02270036  RH  029%=      5-min Rain = 0
KTH1 042301Z 36006KT 23/04 A2993 RMK A01 T02260035  RH  029%=      5-min Rain = 0
KTH1 042302Z 36007KT 23/04 A2993 RMK A01 T02250036  RH  029%=      5-min Rain = 0
KTH1 042303Z 36009KT 23/04 A2993 RMK A01 T02250036  RH  029%=      5-min Rain = 0
KTH1 042304Z 35007KT 22/04 A2993 RMK A01 T02240036  RH  029%=      5-min Rain = 0
KTH1 042305Z 35006KT 22/04 A2993 RMK A01 T02230037  RH  029%=      5-min Rain = 0
KTH1 042306Z 35007KT 22/04 A2993 RMK A01 T02220036  RH  030%=      5-min Rain = 0
KTH1 042307Z 35005KT 22/04 A2993 RMK A01 T02220037  RH  030%=      5-min Rain = 0
KTH1 042308Z 34005KT 22/04 A2993 RMK A01 T02210038  RH  030%=      5-min Rain = 0
KTH1 042309Z 34004KT 22/04 A2993 RMK A01 T02210040  RH  031%=      5-min Rain = 0
KTH1 042310Z 34005KT 22/04 A2993 RMK A01 T02210040  RH  031%=      5-min Rain = 0
KTH1 042311Z 35005KT 22/04 A2993 RMK A01 T02200041  RH  031%=      5-min Rain = 0
KTH1 042312Z 35005KT 22/04 A2993 RMK A01 T02190039  RH  031%=      5-min Rain = 0
KTH1 042313Z 35007KT 22/04 A2993 RMK A01 T02180039  RH  031%=      5-min Rain = 0
KTH1 042314Z 34005KT 22/04 A2993 RMK A01 T02170040  RH  031%=      5-min Rain = 0
KTH1 042315Z 35006KT 22/04 A2993 RMK A01 T02160041  RH  032%=      5-min Rain = 0
KTH1 042316Z 35006KT 22/04 A2993 RMK A01 T02150040  RH  032%=      5-min Rain = 0
KTH1 042317Z 35007KT 21/04 A2993 RMK A01 T02140040  RH  032%=      5-min Rain = 0
KTH1 042318Z 35007KT 21/04 A2993 RMK A01 T02130039  RH  032%=      5-min Rain = 0
KTH1 042319Z 35006KT 21/04 A2993 RMK A01 T02130039  RH  032%=      5-min Rain = 0
KTH1 042320Z 34006KT 21/04 A2993 RMK A01 T02120041  RH  033%=      5-min Rain = 0
KTH1 042321Z 33005KT 21/04 A2993 RMK A01 T02110041  RH  033%=      5-min Rain = 0
KTH1 042322Z 34004KT 21/04 A2993 RMK A01 T02100041  RH  033%=      5-min Rain = 0
KTH1 042323Z 34005KT 21/04 A2993 RMK A01 T02090040  RH  033%=      5-min Rain = 0
KTH1 042324Z 34006KT 21/04 A2993 RMK A01 T02080040  RH  033%=      5-min Rain = 0
KTH1 042325Z 34005KT 21/04 A2993 RMK A01 T02070040  RH  033%=      5-min Rain = 0
KTH1 042326Z 35006KT 21/04 A2993 RMK A01 T02060040  RH  033%=      5-min Rain = 0
KTH1 042327Z 35004KT 21/04 A2993 RMK A01 T02060041  RH  034%=      5-min Rain = 0
KTH1 042328Z 35005KT 20/04 A2993 RMK A01 T02040040  RH  034%=      5-min Rain = 0
KTH1 042329Z 35005KT 20/04 A2993 RMK A01 T02030039  RH  034%=      5-min Rain = 0
KTH1 042330Z 34005KT 20/04 A2994 RMK A01 T02020039  RH  034%=      5-min Rain = 0
KTH1 042331Z 34005KT 20/04 A2994 RMK A01 T02020039  RH  034%=      5-min Rain = 0
KTH1 042332Z 35005KT 20/04 A2994 RMK A01 T02010040  RH  035%=      5-min Rain = 0
KTH1 042333Z 34005KT 20/04 A2994 RMK A01 T02000040  RH  035%=      5-min Rain = 0
KTH1 042334Z 34005KT 20/04 A2994 RMK A01 T01990041  RH  035%=      5-min Rain = 0
KTH1 042335Z 34005KT 20/04 A2994 RMK A01 T01980041  RH  035%=      5-min Rain = 0
KTH1 042336Z 35005KT 20/04 A2994 RMK A01 T01970041  RH  036%=      5-min Rain = 0
KTH1 042337Z 34005KT 20/04 A2994 RMK A01 T01960040  RH  036%=      5-min Rain = 0
KTH1 042338Z 35004KT 20/04 A2994 RMK A01 T01950039  RH  036%=      5-min Rain = 0
KTH1 042339Z 35005KT 19/04 A2994 RMK A01 T01940039  RH  036%=      5-min Rain = 0
KTH1 042340Z 35006KT 19/04 A2994 RMK A01 T01930039  RH  036%=      5-min Rain = 0
KTH1 042341Z 36005KT 19/04 A2994 RMK A01 T01920038  RH  036%=      5-min Rain = 0
KTH1 042342Z 36005KT 19/04 A2994 RMK A01 T01910038  RH  036%=      5-min Rain = 0
KTH1 042343Z 35004KT 19/04 A2994 RMK A01 T01900038  RH  037%=      5-min Rain = 0
KTH1 042344Z 35003KT 19/04 A2995 RMK A01 T01890039  RH  037%=      5-min Rain = 0
KTH1 042345Z 35004KT 19/04 A2995 RMK A01 T01880039  RH  037%=      5-min Rain = 0
KTH1 042346Z 35003KT 19/04 A2995 RMK A01 T01870039  RH  038%=      5-min Rain = 0
KTH1 042347Z 35003KT 19/04 A2995 RMK A01 T01860039  RH  038%=      5-min Rain = 0
KTH1 042348Z 00004KT 19/04 A2995 RMK A01 T01850038  RH  038%=      5-min Rain = 0
KTH1 042349Z 01004KT 18/04 A2995 RMK A01 T01840037  RH  037%=      5-min Rain = 0
KTH1 042350Z 00005KT 18/04 A2995 RMK A01 T01830036  RH  038%=      5-min Rain = 0
KTH1 042351Z 01005KT 18/04 A2994 RMK A01 T01830036  RH  038%=      5-min Rain = 0
KTH1 042352Z 01005KT 18/04 A2994 RMK A01 T01820036  RH  038%=      5-min Rain = 0
KTH1 042353Z 01004KT 18/04 A2994 RMK A01 T01820035  RH  038%=      5-min Rain = 0
KTH1 042354Z 01004KT 18/04 A2994 RMK A01 T01810035  RH  038%=      5-min Rain = 0
KTH1 042355Z 01004KT 18/04 A2994 RMK A01 T01810035  RH  038%=      5-min Rain = 0
KTH1 042356Z 01006KT 18/04 A2995 RMK A01 T01810035  RH  038%=      5-min Rain = 0
KTH1 042357Z 01005KT 18/04 A2995 RMK A01 T01810035  RH  038%=      5-min Rain = 0
KTH1 042358Z 01005KT 18/04 A2995 RMK A01 T01800035  RH  038%=      5-min Rain = 0
KTH1 042359Z 01005KT 18/04 A2995 RMK A01 T01790035  RH  038%=      5-min Rain = 0
KTH1 050000Z 00004KT 18/04 A2995 RMK A01 T01790035  RH  038%=      5-min Rain = 0
KTH1 050001Z 00004KT 18/04 A2995 RMK A01 T01780035  RH  039%=      5-min Rain = 0
KTH1 050002Z 00005KT 18/04 A2995 RMK A01 T01780036  RH  039%=      5-min Rain = 0
KTH1 050003Z 00006KT 18/04 A2995 RMK A01 T01780036  RH  039%=      5-min Rain = 0
KTH1 050004Z 01005KT 18/04 A2995 RMK A01 T01770036  RH  039%=      5-min Rain = 0
KTH1 050005Z 35005KT 18/04 A2995 RMK A01 T01760036  RH  039%=      5-min Rain = 0
KTH1 050006Z 01006KT 18/04 A2995 RMK A01 T01750036  RH  040%=      5-min Rain = 0
KTH1 050007Z 01005KT 18/04 A2995 RMK A01 T01750037  RH  040%=      5-min Rain = 0
KTH1 050008Z 36005KT 18/04 A2995 RMK A01 T01750037  RH  040%=      5-min Rain = 0
KTH1 050009Z 36004KT 17/04 A2995 RMK A01 T01740037  RH  040%=      5-min Rain = 0
KTH1 050010Z 35004KT 18/04 A2995 RMK A01 T01750038  RH  040%=      5-min Rain = 0
KTH1 050011Z 35005KT 17/04 A2995 RMK A01 T01740038  RH  040%=      5-min Rain = 0
KTH1 050012Z 35004KT 17/04 A2995 RMK A01 T01730039  RH  041%=      5-min Rain = 0
KTH1 050013Z 00005KT 17/04 A2995 RMK A01 T01730040  RH  041%=      5-min Rain = 0
KTH1 050014Z 00006KT 17/04 A2995 RMK A01 T01720039  RH  041%=      5-min Rain = 0
KTH1 050015Z 36005KT 17/04 A2996 RMK A01 T01710038  RH  041%=      5-min Rain = 0
KTH1 050016Z 00004KT 17/04 A2996 RMK A01 T01700038  RH  041%=      5-min Rain = 0
KTH1 050017Z 36005KT 17/04 A2996 RMK A01 T01700038  RH  041%=      5-min Rain = 0
KTH1 050018Z 35004KT 17/04 A2996 RMK A01 T01690039  RH  042%=      5-min Rain = 0
KTH1 050019Z 35005KT 17/04 A2996 RMK A01 T01680039  RH  042%=      5-min Rain = 0
KTH1 050020Z 36005KT 17/04 A2996 RMK A01 T01670038  RH  042%=      5-min Rain = 0
KTH1 050021Z 36004KT 17/04 A2996 RMK A01 T01650038  RH  043%=      5-min Rain = 0
KTH1 050022Z 36005KT 17/04 A2996 RMK A01 T01650039  RH  043%=      5-min Rain = 0
KTH1 050023Z 35005KT 17/04 A2996 RMK A01 T01650038  RH  043%=      5-min Rain = 0
KTH1 050024Z 00006KT 16/04 A2996 RMK A01 T01640039  RH  043%=      5-min Rain = 0
KTH1 050025Z 36005KT 16/04 A2996 RMK A01 T01640039  RH  043%=      5-min Rain = 0
KTH1 050026Z 36005KT 16/04 A2996 RMK A01 T01640039  RH  043%=      5-min Rain = 0
KTH1 050027Z 01005KT 16/04 A2996 RMK A01 T01640039  RH  043%=      5-min Rain = 0
KTH1 050028Z 01004KT 16/04 A2996 RMK A01 T01630039  RH  044%=      5-min Rain = 0
KTH1 050029Z 00005KT 16/04 A2996 RMK A01 T01630039  RH  044%=      5-min Rain = 0
KTH1 050030Z 00005KT 16/04 A2996 RMK A01 T01630039  RH  044%=      5-min Rain = 0
KTH1 050031Z 01004KT 16/04 A2996 RMK A01 T01630039  RH  044%=      5-min Rain = 0
KTH1 050032Z 01005KT 16/04 A2996 RMK A01 T01630039  RH  044%=      5-min Rain = 0
KTH1 050033Z 01006KT 16/04 A2996 RMK A01 T01630038  RH  044%=      5-min Rain = 0
KTH1 050034Z 01006KT 16/04 A2997 RMK A01 T01640039  RH  043%=      5-min Rain = 0
KTH1 050035Z 01005KT 16/04 A2997 RMK A01 T01640039  RH  043%=      5-min Rain = 0
KTH1 050036Z 02004KT 16/04 A2997 RMK A01 T01640039  RH  043%=      5-min Rain = 0
KTH1 050037Z 01004KT 16/04 A2997 RMK A01 T01640039  RH  043%=      5-min Rain = 0
KTH1 050038Z 00006KT 16/04 A2997 RMK A01 T01640039  RH  043%=      5-min Rain = 0
KTH1 050039Z 00006KT 16/04 A2997 RMK A01 T01630039  RH  043%=      5-min Rain = 0
KTH1 050040Z 36005G10KT 16/04 A2997 RMK A01 T01640039  RH  043%=      5-min Rain = 0
KTH1 050041Z 00006KT 16/04 A2997 RMK A01 T01630039  RH  044%=      5-min Rain = 0
KTH1 050042Z 00004KT 16/04 A2997 RMK A01 T01630039  RH  044%=      5-min Rain = 0
KTH1 050043Z 01005KT 16/04 A2997 RMK A01 T01630039  RH  044%=      5-min Rain = 0
KTH1 050044Z 01006KT 16/04 A2997 RMK A01 T01630039  RH  044%=      5-min Rain = 0
KTH1 050045Z 01005KT 16/04 A2997 RMK A01 T01630039  RH  044%=      5-min Rain = 0
KTH1 050046Z 01005KT 16/04 A2997 RMK A01 T01630039  RH  044%=      5-min Rain = 0
KTH1 050047Z 00005KT 16/04 A2997 RMK A01 T01620039  RH  044%=      5-min Rain = 0
KTH1 050048Z 00005KT 16/04 A2997 RMK A01 T01610039  RH  044%=      5-min Rain = 0
KTH1 050049Z 01006KT 16/04 A2997 RMK A01 T01610039  RH  044%=      5-min Rain = 0
KTH1 050050Z 01005KT 16/04 A2997 RMK A01 T01610039  RH  044%=      5-min Rain = 0
KTH1 050051Z 35005KT 16/04 A2997 RMK A01 T01610039  RH  044%=      5-min Rain = 0
KTH1 050052Z 36005KT 16/04 A2998 RMK A01 T01600039  RH  044%=      5-min Rain = 0
KTH1 050053Z 00006KT 16/04 A2998 RMK A01 T01590039  RH  045%=      5-min Rain = 0
KTH1 050054Z 36005KT 16/04 A2998 RMK A01 T01590040  RH  045%=      5-min Rain = 0
KTH1 050055Z 35005KT 16/04 A2998 RMK A01 T01580040  RH  045%=      5-min Rain = 0
KTH1 050056Z 36005KT 16/04 A2998 RMK A01 T01580040  RH  045%=      5-min Rain = 0
KTH1 050057Z 35006KT 16/04 A2998 RMK A01 T01580041  RH  046%=      5-min Rain = 0
KTH1 050058Z 35005KT 16/04 A2998 RMK A01 T01570041  RH  046%=      5-min Rain = 0
KTH1 050059Z 35005KT 16/04 A2998 RMK A01 T01570041  RH  046%=      5-min Rain = 0
KTH1 050100Z 36005KT 16/04 A2998 RMK A01 T01560040  RH  046%=      5-min Rain = 0
KTH1 050101Z 35006KT 16/04 A2998 RMK A01 T01550040  RH  046%=      5-min Rain = 0
KTH1 050102Z 35004KT 15/04 A2998 RMK A01 T01540040  RH  046%=      5-min Rain = 0
KTH1 050103Z 36005KT 15/04 A2998 RMK A01 T01530040  RH  047%=      5-min Rain = 0
KTH1 050104Z 36004KT 15/04 A2998 RMK A01 T01520040  RH  047%=      5-min Rain = 0
KTH1 050105Z 35004KT 15/04 A2998 RMK A01 T01520040  RH  047%=      5-min Rain = 0
KTH1 050106Z 35003KT 15/04 A2998 RMK A01 T01510040  RH  047%=      5-min Rain = 0
KTH1 050107Z 36003KT 15/04 A2998 RMK A01 T01500040  RH  048%=      5-min Rain = 0
KTH1 050108Z 35004KT 15/04 A2998 RMK A01 T01490040  RH  048%=      5-min Rain = 0
KTH1 050109Z 36003KT 15/04 A2998 RMK A01 T01490040  RH  048%=      5-min Rain = 0
KTH1 050110Z 36005KT 15/04 A2998 RMK A01 T01480039  RH  048%=      5-min Rain = 0
KTH1 050111Z 00005KT 15/04 A2998 RMK A01 T01480040  RH  048%=      5-min Rain = 0
KTH1 050112Z 01005KT 15/04 A2998 RMK A01 T01480040  RH  048%=      5-min Rain = 0
KTH1 050113Z 35004KT 15/04 A2998 RMK A01 T01480040  RH  048%=      5-min Rain = 0
KTH1 050114Z 35004KT 15/04 A2998 RMK A01 T01480040  RH  048%=      5-min Rain = 0
KTH1 050115Z 35004KT 15/04 A2998 RMK A01 T01480041  RH  049%=      5-min Rain = 0
KTH1 050116Z 34006KT 15/04 A2999 RMK A01 T01480041  RH  049%=      5-min Rain = 0
KTH1 050117Z 35006KT 15/04 A2999 RMK A01 T01480042  RH  049%=      5-min Rain = 0
KTH1 050118Z 35005KT 15/04 A2999 RMK A01 T01480043  RH  049%=      5-min Rain = 0
KTH1 050119Z 34005KT 15/04 A2999 RMK A01 T01480043  RH  049%=      5-min Rain = 0
KTH1 050120Z 34005KT 15/04 A2999 RMK A01 T01470043  RH  050%=      5-min Rain = 0
KTH1 050121Z 34005KT 15/04 A2999 RMK A01 T01460043  RH  050%=      5-min Rain = 0
KTH1 050122Z 34004KT 15/04 A2999 RMK A01 T01460043  RH  050%=      5-min Rain = 0
KTH1 050123Z 34005KT 15/04 A2999 RMK A01 T01460044  RH  050%=      5-min Rain = 0
KTH1 050124Z 35003KT 15/04 A2999 RMK A01 T01460044  RH  050%=      5-min Rain = 0
KTH1 050125Z 34004KT 15/04 A2999 RMK A01 T01450043  RH  050%=      5-min Rain = 0
KTH1 050126Z 35004KT 15/04 A2999 RMK A01 T01450042  RH  050%=      5-min Rain = 0
KTH1 050127Z 35004KT 15/04 A2999 RMK A01 T01450042  RH  050%=      5-min Rain = 0
KTH1 050128Z 35003KT 14/04 A2999 RMK A01 T01440041  RH  050%=      5-min Rain = 0
KTH1 050129Z 35005KT 14/04 A2999 RMK A01 T01440041  RH  050%=      5-min Rain = 0
KTH1 050130Z 36004KT 14/04 A2999 RMK A01 T01440041  RH  050%=      5-min Rain = 0
KTH1 050131Z 35004KT 14/04 A2999 RMK A01 T01430041  RH  050%=      5-min Rain = 0
KTH1 050132Z 35003KT 14/04 A2999 RMK A01 T01430041  RH  050%=      5-min Rain = 0
KTH1 050133Z 35003KT 14/04 A30 RMK A01 T01420040  RH  050%=      5-min Rain = 0
KTH1 050134Z 00003KT 14/04 A30 RMK A01 T01420041  RH  051%=      5-min Rain = 0
KTH1 050135Z 00003KT 14/04 A30 RMK A01 T01410041  RH  051%=      5-min Rain = 0
KTH1 050136Z 00004KT 14/04 A30 RMK A01 T01410041  RH  051%=      5-min Rain = 0
KTH1 050137Z 35005KT 14/04 A30 RMK A01 T01410041  RH  051%=      5-min Rain = 0
KTH1 050138Z 35004KT 14/04 A30 RMK A01 T01400041  RH  051%=      5-min Rain = 0
KTH1 050139Z 36004KT 14/04 A30 RMK A01 T01400041  RH  051%=      5-min Rain = 0
KTH1 050140Z 35004KT 14/04 A30 RMK A01 T01410042  RH  051%=      5-min Rain = 0
KTH1 050141Z 35005KT 14/04 A30 RMK A01 T01410042  RH  051%=      5-min Rain = 0
KTH1 050142Z 36004KT 14/04 A30 RMK A01 T01410042  RH  051%=      5-min Rain = 0
KTH1 050143Z 36003KT 14/04 A30 RMK A01 T01400042  RH  051%=      5-min Rain = 0
KTH1 050144Z 01003KT 14/04 A30 RMK A01 T01400041  RH  051%=      5-min Rain = 0
KTH1 050145Z 01003KT 14/04 A3001 RMK A01 T01400041  RH  051%=      5-min Rain = 0
KTH1 050146Z 01002KT 14/04 A3001 RMK A01 T01390041  RH  052%=      5-min Rain = 0
KTH1 050147Z 00002KT 14/04 A3001 RMK A01 T01390041  RH  052%=      5-min Rain = 0
KTH1 050148Z 02002KT 14/04 A3001 RMK A01 T01390041  RH  052%=      5-min Rain = 0
KTH1 050149Z 02002KT 14/04 A3001 RMK A01 T01390041  RH  052%=      5-min Rain = 0
KTH1 050150Z 02002KT 14/04 A3001 RMK A01 T01390041  RH  052%=      5-min Rain = 0
KTH1 050151Z 01004KT 14/04 A3001 RMK A01 T01380041  RH  052%=      5-min Rain = 0
KTH1 050152Z 01004KT 14/04 A3001 RMK A01 T01380041  RH  052%=      5-min Rain = 0
KTH1 050153Z 03003KT 14/04 A3001 RMK A01 T01390041  RH  052%=      5-min Rain = 0
KTH1 050154Z 00004KT 14/04 A3001 RMK A01 T01380041  RH  052%=      5-min Rain = 0
KTH1 050155Z 36004KT 14/04 A3001 RMK A01 T01390041  RH  052%=      5-min Rain = 0
KTH1 050156Z 35004KT 14/04 A3001 RMK A01 T01390041  RH  052%=      5-min Rain = 0
KTH1 050157Z 36003KT 14/04 A3001 RMK A01 T01380041  RH  052%=      5-min Rain = 0
KTH1 050158Z 34004KT 14/04 A3001 RMK A01 T01370042  RH  053%=      5-min Rain = 0
KTH1 050159Z 34003KT 14/04 A3001 RMK A01 T01360041  RH  053%=      5-min Rain = 0
KTH1 050200Z 35003KT 14/04 A3001 RMK A01 T01350041  RH  053%=      5-min Rain = 0
KTH1 050201Z 00004KT 13/04 A3001 RMK A01 T01340041  RH  053%=      5-min Rain = 0
KTH1 050202Z 00003KT 13/04 A3001 RMK A01 T01340041  RH  053%=      5-min Rain = 0
KTH1 050203Z 36003KT 13/04 A3001 RMK A01 T01340041  RH  053%=      5-min Rain = 0
KTH1 050204Z 36003KT 13/04 A3001 RMK A01 T01330040  RH  053%=      5-min Rain = 0
KTH1 050205Z 35003KT 13/04 A3001 RMK A01 T01320040  RH  054%=      5-min Rain = 0
KTH1 050206Z 35002KT 13/04 A3001 RMK A01 T01310040  RH  054%=      5-min Rain = 0
KTH1 050207Z 01003KT 13/04 A3001 RMK A01 T01300040  RH  054%=      5-min Rain = 0
KTH1 050208Z 00002KT 13/04 A3001 RMK A01 T01290040  RH  054%=      5-min Rain = 0
KTH1 050209Z 01003KT 13/04 A3001 RMK A01 T01290040  RH  055%=      5-min Rain = 0
KTH1 050210Z 01003KT 13/04 A3002 RMK A01 T01280039  RH  055%=      5-min Rain = 0
KTH1 050211Z 36003KT 13/04 A3002 RMK A01 T01280040  RH  055%=      5-min Rain = 0
KTH1 050212Z 01003KT 13/04 A3002 RMK A01 T01280040  RH  055%=      5-min Rain = 0
KTH1 050213Z 36004KT 13/04 A3002 RMK A01 T01280040  RH  055%=      5-min Rain = 0
KTH1 050214Z 01005KT 13/04 A3002 RMK A01 T01270040  RH  055%=      5-min Rain = 0
KTH1 050215Z 00006KT 13/04 A3002 RMK A01 T01280041  RH  056%=      5-min Rain = 0
KTH1 050216Z 36006KT 13/04 A3002 RMK A01 T01290042  RH  055%=      5-min Rain = 0
KTH1 050217Z 00006KT 13/04 A3002 RMK A01 T01310042  RH  055%=      5-min Rain = 0
KTH1 050218Z 01005KT 13/04 A3002 RMK A01 T01320043  RH  055%=      5-min Rain = 0
KTH1 050219Z 01005KT 13/04 A3002 RMK A01 T01320043  RH  055%=      5-min Rain = 0
KTH1 050220Z 01004KT 13/04 A3002 RMK A01 T01330043  RH  055%=      5-min Rain = 0
KTH1 050221Z 01005KT 13/04 A3002 RMK A01 T01330044  RH  055%=      5-min Rain = 0
KTH1 050222Z 01005KT 13/04 A3002 RMK A01 T01340044  RH  054%=      5-min Rain = 0
KTH1 050223Z 01007KT 14/05 A3002 RMK A01 T01360045  RH  054%=      5-min Rain = 0
KTH1 050224Z 01006KT 14/05 A3002 RMK A01 T01380045  RH  053%=      5-min Rain = 0
KTH1 050225Z 01005KT 14/05 A3002 RMK A01 T01390045  RH  053%=      5-min Rain = 0
KTH1 050226Z 01006G11KT 14/05 A3002 RMK A01 T01400045  RH  053%=      5-min Rain = 0
KTH1 050227Z 01005KT 14/05 A3002 RMK A01 T01400045  RH  053%=      5-min Rain = 0
KTH1 050228Z 01006KT 14/05 A3002 RMK A01 T01400045  RH  053%=      5-min Rain = 0
KTH1 050229Z 01005G10KT 14/05 A3002 RMK A01 T01400045  RH  053%=      5-min Rain = 0
KTH1 050230Z 01005KT 14/05 A3002 RMK A01 T01400046  RH  053%=      5-min Rain = 0
KTH1 050231Z 01006KT 14/05 A3002 RMK A01 T01400045  RH  053%=      5-min Rain = 0
KTH1 050232Z 01006KT 14/05 A3003 RMK A01 T01400046  RH  053%=      5-min Rain = 0
KTH1 050233Z 01006KT 14/05 A3003 RMK A01 T01400046  RH  053%=      5-min Rain = 0
KTH1 050234Z 01007KT 14/05 A3003 RMK A01 T01400046  RH  053%=      5-min Rain = 0
KTH1 050235Z 01006KT 14/05 A3003 RMK A01 T01410046  RH  053%=      5-min Rain = 0
KTH1 050236Z 01005KT 14/05 A3003 RMK A01 T01410046  RH  053%=      5-min Rain = 0
KTH1 050237Z 01006KT 14/05 A3003 RMK A01 T01400046  RH  053%=      5-min Rain = 0
KTH1 050238Z 01006KT 14/05 A3003 RMK A01 T01400047  RH  053%=      5-min Rain = 0
KTH1 050239Z 01005KT 14/05 A3003 RMK A01 T01400047  RH  053%=      5-min Rain = 0
KTH1 050240Z 01006KT 14/05 A3003 RMK A01 T01390046  RH  054%=      5-min Rain = 0
KTH1 050241Z 01007KT 14/05 A3003 RMK A01 T01390047  RH  054%=      5-min Rain = 0
KTH1 050242Z 01006KT 14/05 A3003 RMK A01 T01380047  RH  054%=      5-min Rain = 0
KTH1 050243Z 01006KT 14/05 A3003 RMK A01 T01380046  RH  054%=      5-min Rain = 0
KTH1 050244Z 00006KT 14/05 A3003 RMK A01 T01370047  RH  054%=      5-min Rain = 0
KTH1 050245Z 01006KT 14/05 A3003 RMK A01 T01370047  RH  055%=      5-min Rain = 0
KTH1 050246Z 36006KT 14/05 A3003 RMK A01 T01360047  RH  055%=      5-min Rain = 0
KTH1 050247Z 01005KT 14/05 A3003 RMK A01 T01360047  RH  055%=      5-min Rain = 0
KTH1 050248Z 01004KT 14/05 A3003 RMK A01 T01350047  RH  055%=      5-min Rain = 0
KTH1 050249Z 01005KT 14/05 A3003 RMK A01 T01350047  RH  055%=      5-min Rain = 0
KTH1 050250Z 01006KT 13/05 A3003 RMK A01 T01340047  RH  056%=      5-min Rain = 0
KTH1 050251Z 01004KT 13/05 A3003 RMK A01 T01340047  RH  056%=      5-min Rain = 0
KTH1 050252Z 00006KT 13/05 A3003 RMK A01 T01340047  RH  056%=      5-min Rain = 0
KTH1 050253Z 01005KT 13/05 A3003 RMK A01 T01340048  RH  056%=      5-min Rain = 0
KTH1 050254Z 00006KT 13/05 A3003 RMK A01 T01340048  RH  056%=      5-min Rain = 0
KTH1 050255Z 00004KT 13/05 A3003 RMK A01 T01330048  RH  056%=      5-min Rain = 0
KTH1 050256Z 00005KT 13/05 A3004 RMK A01 T01320048  RH  057%=      5-min Rain = 0
KTH1 050257Z 36006KT 13/05 A3004 RMK A01 T01320048  RH  057%=      5-min Rain = 0
KTH1 050258Z 00005KT 13/05 A3004 RMK A01 T01320049  RH  057%=      5-min Rain = 0
KTH1 050259Z 36005KT 13/05 A3004 RMK A01 T01320049  RH  057%=      5-min Rain = 0
KTH1 050300Z 00005KT 13/05 A3004 RMK A01 T01310049  RH  057%=      5-min Rain = 0
KTH1 050301Z 01004KT 13/05 A3004 RMK A01 T01310049  RH  058%=      5-min Rain = 0
KTH1 050302Z 35005KT 13/05 A3004 RMK A01 T01300049  RH  058%=      5-min Rain = 0
KTH1 050303Z 36005KT 13/05 A3004 RMK A01 T01300049  RH  058%=      5-min Rain = 0
KTH1 050304Z 36005KT 13/05 A3004 RMK A01 T01290049  RH  058%=      5-min Rain = 0
KTH1 050305Z 00004KT 13/05 A3004 RMK A01 T01290049  RH  058%=      5-min Rain = 0
KTH1 050306Z 00005KT 13/05 A3004 RMK A01 T01280049  RH  058%=      5-min Rain = 0
KTH1 050307Z 01005KT 13/05 A3004 RMK A01 T01280049  RH  059%=      5-min Rain = 0
KTH1 050308Z 01006KT 13/05 A3004 RMK A01 T01280049  RH  059%=      5-min Rain = 0
KTH1 050309Z 00006KT 13/05 A3004 RMK A01 T01280050  RH  059%=      5-min Rain = 0
KTH1 050310Z 01006KT 13/05 A3004 RMK A01 T01280050  RH  059%=      5-min Rain = 0
KTH1 050311Z 01005KT 13/05 A3004 RMK A01 T01280051  RH  059%=      5-min Rain = 0
KTH1 050312Z 01005KT 13/05 A3004 RMK A01 T01280050  RH  059%=      5-min Rain = 0
KTH1 050313Z 01006KT 13/05 A3004 RMK A01 T01280050  RH  059%=      5-min Rain = 0
KTH1 050314Z 01007KT 13/05 A3004 RMK A01 T01280051  RH  059%=      5-min Rain = 0
KTH1 050315Z 01007KT 13/05 A3004 RMK A01 T01280051  RH  059%=      5-min Rain = 0
KTH1 050316Z 00007KT 13/05 A3004 RMK A01 T01290052  RH  059%=      5-min Rain = 0
KTH1 050317Z 00006KT 13/05 A3004 RMK A01 T01290052  RH  059%=      5-min Rain = 0
KTH1 050318Z 01007KT 13/05 A3004 RMK A01 T01300053  RH  060%=      5-min Rain = 0
KTH1 050319Z 01004KT 13/05 A3004 RMK A01 T01290053  RH  060%=      5-min Rain = 0
KTH1 050320Z 01008KT 13/05 A3004 RMK A01 T01300053  RH  060%=      5-min Rain = 0
KTH1 050321Z 02006KT 13/05 A3004 RMK A01 T01300054  RH  060%=      5-min Rain = 0
KTH1 050322Z 01006KT 13/05 A3004 RMK A01 T01300054  RH  060%=      5-min Rain = 0
KTH1 050323Z 01006KT 13/06 A3005 RMK A01 T01310055  RH  060%=      5-min Rain = 0
KTH1 050324Z 02006KT 13/06 A3005 RMK A01 T01310055  RH  060%=      5-min Rain = 0
KTH1 050325Z 01005KT 13/06 A3005 RMK A01 T01310055  RH  060%=      5-min Rain = 0
KTH1 050326Z 02005KT 13/06 A3005 RMK A01 T01310055  RH  060%=      5-min Rain = 0
KTH1 050327Z 02007KT 13/06 A3005 RMK A01 T01310056  RH  060%=      5-min Rain = 0
KTH1 050328Z 01006KT 13/06 A3005 RMK A01 T01310057  RH  060%=      5-min Rain = 0
KTH1 050329Z 01007KT 13/06 A3005 RMK A01 T01320057  RH  060%=      5-min Rain = 0
KTH1 050330Z 01005KT 13/06 A3005 RMK A01 T01320058  RH  060%=      5-min Rain = 0
KTH1 050331Z 02006KT 13/06 A3005 RMK A01 T01330058  RH  060%=      5-min Rain = 0
KTH1 050332Z 01008KT 13/06 A3005 RMK A01 T01320058  RH  061%=      5-min Rain = 0
KTH1 050333Z 01006KT 13/06 A3005 RMK A01 T01330059  RH  061%=      5-min Rain = 0
KTH1 050334Z 02007KT 13/06 A3005 RMK A01 T01320059  RH  061%=      5-min Rain = 0
KTH1 050335Z 02006KT 13/06 A3005 RMK A01 T01320059  RH  061%=      5-min Rain = 0
KTH1 050336Z 03007KT 13/06 A3005 RMK A01 T01320060  RH  061%=      5-min Rain = 0
KTH1 050337Z 02006KT 13/06 A3005 RMK A01 T01320060  RH  061%=      5-min Rain = 0
KTH1 050338Z 02005KT 13/06 A3005 RMK A01 T01330061  RH  062%=      5-min Rain = 0
KTH1 050339Z 02006KT 13/06 A3005 RMK A01 T01330060  RH  062%=      5-min Rain = 0
KTH1 050340Z 02006KT 13/06 A3005 RMK A01 T01330061  RH  062%=      5-min Rain = 0
KTH1 050341Z 02005KT 13/06 A3005 RMK A01 T01330061  RH  062%=      5-min Rain = 0
KTH1 050342Z 02007KT 13/06 A3005 RMK A01 T01330062  RH  062%=      5-min Rain = 0
KTH1 050343Z 02007KT 13/06 A3005 RMK A01 T01330062  RH  062%=      5-min Rain = 0
KTH1 050344Z 02007KT 13/06 A3005 RMK A01 T01330063  RH  062%=      5-min Rain = 0
KTH1 050345Z 02006KT 13/06 A3005 RMK A01 T01330063  RH  062%=      5-min Rain = 0
KTH1 050346Z 01007KT 13/06 A3005 RMK A01 T01330063  RH  062%=      5-min Rain = 0
KTH1 050347Z 02008KT 13/06 A3005 RMK A01 T01330064  RH  063%=      5-min Rain = 0
KTH1 050348Z 02004KT 13/06 A3005 RMK A01 T01330064  RH  063%=      5-min Rain = 0
KTH1 050349Z 01005KT 13/06 A3005 RMK A01 T01330064  RH  063%=      5-min Rain = 0
KTH1 050350Z 02006KT 13/06 A3005 RMK A01 T01330064  RH  063%=      5-min Rain = 0
KTH1 050351Z 02005KT 13/06 A3005 RMK A01 T01320064  RH  063%=      5-min Rain = 0
KTH1 050352Z 02007G12KT 13/06 A3005 RMK A01 T01320064  RH  063%=      5-min Rain = 0
KTH1 050353Z 02006KT 13/07 A3005 RMK A01 T01320065  RH  064%=      5-min Rain = 0
KTH1 050354Z 03006KT 13/07 A3005 RMK A01 T01320065  RH  064%=      5-min Rain = 0
KTH1 050355Z 02008KT 13/07 A3005 RMK A01 T01320065  RH  064%=      5-min Rain = 0
KTH1 050356Z 02007KT 13/07 A3005 RMK A01 T01330066  RH  064%=      5-min Rain = 0
KTH1 050357Z 03005KT 13/07 A3005 RMK A01 T01340066  RH  064%=      5-min Rain = 0
KTH1 050358Z 02005KT 13/07 A3005 RMK A01 T01330066  RH  064%=      5-min Rain = 0
KTH1 050359Z 01006KT 13/07 A3005 RMK A01 T01330065  RH  064%=      5-min Rain = 0
KTH1 050400Z 02005KT 13/07 A3005 RMK A01 T01320066  RH  064%=      5-min Rain = 0
KTH1 050401Z 02004KT 13/07 A3005 RMK A01 T01320066  RH  064%=      5-min Rain = 0
KTH1 050402Z 01005KT 13/07 A3005 RMK A01 T01320066  RH  064%=      5-min Rain = 0
KTH1 050403Z 02005KT 13/07 A3005 RMK A01 T01320067  RH  065%=      5-min Rain = 0
KTH1 050404Z 02006KT 13/07 A3005 RMK A01 T01310066  RH  065%=      5-min Rain = 0
KTH1 050405Z 01007KT 13/07 A3005 RMK A01 T01310067  RH  065%=      5-min Rain = 0
KTH1 050406Z 01006KT 13/07 A3005 RMK A01 T01310067  RH  065%=      5-min Rain = 0
KTH1 050407Z 02004G9KT 13/07 A3005 RMK A01 T01310067  RH  065%=      5-min Rain = 0
KTH1 050408Z 01004KT 13/07 A3005 RMK A01 T01320067  RH  065%=      5-min Rain = 0
KTH1 050409Z 01004KT 13/07 A3005 RMK A01 T01310066  RH  065%=      5-min Rain = 0
KTH1 050410Z 02005KT 13/07 A3005 RMK A01 T01300066  RH  065%=      5-min Rain = 0
KTH1 050411Z 01006KT 13/07 A3005 RMK A01 T01290066  RH  066%=      5-min Rain = 0
KTH1 050412Z 01004KT 13/07 A3005 RMK A01 T01290067  RH  066%=      5-min Rain = 0
KTH1 050413Z 02005KT 13/07 A3005 RMK A01 T01280066  RH  066%=      5-min Rain = 0
KTH1 050414Z 01006KT 13/07 A3005 RMK A01 T01280066  RH  066%=      5-min Rain = 0
KTH1 050415Z 02006KT 13/07 A3005 RMK A01 T01280067  RH  066%=      5-min Rain = 0
KTH1 050416Z 01004KT 13/07 A3005 RMK A01 T01280067  RH  066%=      5-min Rain = 0
KTH1 050417Z 02005KT 13/07 A3005 RMK A01 T01280067  RH  066%=      5-min Rain = 0
KTH1 050418Z 01006KT 13/07 A3005 RMK A01 T01280067  RH  066%=      5-min Rain = 0
KTH1 050419Z 01004KT 13/07 A3005 RMK A01 T01280067  RH  066%=      5-min Rain = 0
KTH1 050420Z 01004KT 13/07 A3005 RMK A01 T01280067  RH  066%=      5-min Rain = 0
KTH1 050421Z 00004KT 13/07 A3006 RMK A01 T01270067  RH  067%=      5-min Rain = 0
KTH1 050422Z 01005KT 13/07 A3006 RMK A01 T01270067  RH  067%=      5-min Rain = 0
KTH1 050423Z 02003KT 13/07 A3006 RMK A01 T01260067  RH  067%=      5-min Rain = 0
KTH1 050424Z 01004KT 13/07 A3006 RMK A01 T01250067  RH  067%=      5-min Rain = 0
KTH1 050425Z 02004KT 13/07 A3006 RMK A01 T01250067  RH  068%=      5-min Rain = 0
KTH1 050426Z 02004KT 12/07 A3006 RMK A01 T01240067  RH  068%=      5-min Rain = 0
KTH1 050427Z 02004KT 12/07 A3006 RMK A01 T01240067  RH  068%=      5-min Rain = 0
KTH1 050428Z 02005KT 12/07 A3006 RMK A01 T01240067  RH  068%=      5-min Rain = 0
KTH1 050429Z 02006KT 12/07 A3006 RMK A01 T01240067  RH  068%=      5-min Rain = 0
KTH1 050430Z 01004KT 12/07 A3006 RMK A01 T01240067  RH  068%=      5-min Rain = 0
KTH1 050431Z 02005KT 12/07 A3006 RMK A01 T01240067  RH  068%=      5-min Rain = 0
KTH1 050432Z 02006KT 12/07 A3006 RMK A01 T01230067  RH  069%=      5-min Rain = 0
KTH1 050433Z 01005KT 12/07 A3006 RMK A01 T01230068  RH  069%=      5-min Rain = 0
KTH1 050434Z 01005KT 12/07 A3006 RMK A01 T01230068  RH  069%=      5-min Rain = 0
KTH1 050435Z 01005KT 12/07 A3006 RMK A01 T01230068  RH  069%=      5-min Rain = 0
KTH1 050436Z 02004KT 12/07 A3006 RMK A01 T01230067  RH  069%=      5-min Rain = 0
KTH1 050437Z 02005KT 12/07 A3006 RMK A01 T01230068  RH  069%=      5-min Rain = 0
KTH1 050438Z 01004KT 12/07 A3006 RMK A01 T01220068  RH  069%=      5-min Rain = 0
KTH1 050439Z 02004KT 12/07 A3006 RMK A01 T01220068  RH  069%=      5-min Rain = 0
KTH1 050440Z 03005KT 12/07 A3006 RMK A01 T01220068  RH  070%=      5-min Rain = 0
KTH1 050441Z 02006KT 12/07 A3006 RMK A01 T01220068  RH  070%=      5-min Rain = 0
KTH1 050442Z 02005KT 12/07 A3006 RMK A01 T01210068  RH  070%=      5-min Rain = 0
KTH1 050443Z 03005KT 12/07 A3006 RMK A01 T01210068  RH  070%=      5-min Rain = 0
KTH1 050444Z 02005KT 12/07 A3006 RMK A01 T01210068  RH  070%=      5-min Rain = 0
KTH1 050445Z 03005KT 12/07 A3006 RMK A01 T01220069  RH  070%=      5-min Rain = 0
KTH1 050446Z 02004KT 12/07 A3006 RMK A01 T01220068  RH  070%=      5-min Rain = 0
KTH1 050447Z 02005KT 12/07 A3006 RMK A01 T01220068  RH  070%=      5-min Rain = 0
KTH1 050448Z 02004KT 12/07 A3006 RMK A01 T01220069  RH  070%=      5-min Rain = 0
KTH1 050449Z 02005KT 12/07 A3006 RMK A01 T01210069  RH  070%=      5-min Rain = 0
KTH1 050450Z 02004KT 12/07 A3006 RMK A01 T01210069  RH  070%=      5-min Rain = 0
KTH1 050451Z 02005KT 12/07 A3006 RMK A01 T01210069  RH  071%=      5-min Rain = 0
KTH1 050452Z 03004KT 12/07 A3006 RMK A01 T01210069  RH  071%=      5-min Rain = 0
KTH1 050453Z 01004KT 12/07 A3006 RMK A01 T01210069  RH  071%=      5-min Rain = 0
KTH1 050454Z 01005KT 12/07 A3006 RMK A01 T01200069  RH  071%=      5-min Rain = 0
KTH1 050455Z 01004KT 12/07 A3006 RMK A01 T01190069  RH  071%=      5-min Rain = 0
KTH1 050456Z 01004KT 12/07 A3006 RMK A01 T01190069  RH  071%=      5-min Rain = 0
KTH1 050457Z 03003KT 12/07 A3006 RMK A01 T01190068  RH  071%=      5-min Rain = 0
KTH1 050458Z 02004KT 12/07 A3006 RMK A01 T01190069  RH  072%=      5-min Rain = 0
KTH1 050459Z 02004KT 12/07 A3006 RMK A01 T01180069  RH  072%=      5-min Rain = 0
KTH1 050500Z 02004KT 12/07 A3006 RMK A01 T01180069  RH  072%=      5-min Rain = 0
KTH1 050501Z 01006KT 12/07 A3006 RMK A01 T01170069  RH  072%=      5-min Rain = 0
KTH1 050502Z 00004KT 12/07 A3006 RMK A01 T01170069  RH  072%=      5-min Rain = 0
KTH1 050503Z 36004KT 12/07 A3006 RMK A01 T01170069  RH  072%=      5-min Rain = 0
KTH1 050504Z 01004KT 12/07 A3007 RMK A01 T01160069  RH  073%=      5-min Rain = 0
KTH1 050505Z 00004KT 12/07 A3007 RMK A01 T01160069  RH  073%=      5-min Rain = 0
KTH1 050506Z 01003KT 12/07 A3007 RMK A01 T01150068  RH  073%=      5-min Rain = 0
KTH1 050507Z 00004KT 11/07 A3007 RMK A01 T01140069  RH  073%=      5-min Rain = 0
KTH1 050508Z 01003KT 11/07 A3007 RMK A01 T01140068  RH  074%=      5-min Rain = 0
KTH1 050509Z 00004KT 11/07 A3007 RMK A01 T01130069  RH  074%=      5-min Rain = 0
KTH1 050510Z 01004KT 11/07 A3007 RMK A01 T01130068  RH  074%=      5-min Rain = 0
KTH1 050511Z 35004KT 11/07 A3007 RMK A01 T01120069  RH  075%=      5-min Rain = 0
KTH1 050512Z 01004KT 11/07 A3007 RMK A01 T01120069  RH  075%=      5-min Rain = 0
KTH1 050513Z 00004KT 11/07 A3007 RMK A01 T01120069  RH  075%=      5-min Rain = 0
KTH1 050514Z 00004KT 11/07 A3007 RMK A01 T01120069  RH  075%=      5-min Rain = 0
KTH1 050515Z 00004KT 11/07 A3007 RMK A01 T01110068  RH  075%=      5-min Rain = 0
KTH1 050516Z 00004KT 11/07 A3007 RMK A01 T01100068  RH  075%=      5-min Rain = 0
KTH1 050517Z 36004KT 11/07 A3007 RMK A01 T01090068  RH  075%=      5-min Rain = 0
KTH1 050518Z 36005KT 11/07 A3007 RMK A01 T01090068  RH  076%=      5-min Rain = 0
KTH1 050519Z 00004KT 11/07 A3007 RMK A01 T01080068  RH  076%=      5-min Rain = 0
KTH1 050520Z 00004KT 11/07 A3007 RMK A01 T01080068  RH  077%=      5-min Rain = 0
KTH1 050521Z 35004KT 11/07 A3007 RMK A01 T01070068  RH  077%=      5-min Rain = 0
KTH1 050522Z 36004KT 11/07 A3007 RMK A01 T01070068  RH  077%=      5-min Rain = 0
KTH1 050523Z 36004KT 11/07 A3007 RMK A01 T01060068  RH  077%=      5-min Rain = 0
KTH1 050524Z 00003KT 11/07 A3007 RMK A01 T01060068  RH  078%=      5-min Rain = 0
KTH1 050525Z 35004KT 11/07 A3007 RMK A01 T01060069  RH  078%=      5-min Rain = 0
KTH1 050526Z 36004KT 11/07 A3007 RMK A01 T01060069  RH  078%=      5-min Rain = 0
KTH1 050527Z 36005KT 11/07 A3007 RMK A01 T01060069  RH  078%=      5-min Rain = 0
KTH1 050528Z 35005KT 11/07 A3007 RMK A01 T01050069  RH  078%=      5-min Rain = 0
KTH1 050529Z 36005KT 11/07 A3007 RMK A01 T01050069  RH  078%=      5-min Rain = 0
KTH1 050530Z 35005KT 11/07 A3007 RMK A01 T01050070  RH  079%=      5-min Rain = 0
KTH1 050531Z 35005KT 11/07 A3007 RMK A01 T01050070  RH  079%=      5-min Rain = 0
KTH1 050532Z 35005KT 11/07 A3007 RMK A01 T01050069  RH  079%=      5-min Rain = 0
KTH1 050533Z 35004KT 11/07 A3007 RMK A01 T01050069  RH  078%=      5-min Rain = 0
KTH1 050534Z 35005KT 11/07 A3007 RMK A01 T01050069  RH  078%=      5-min Rain = 0
KTH1 050535Z 00005KT 11/07 A3007 RMK A01 T01050070  RH  079%=      5-min Rain = 0
KTH1 050536Z 00005KT 11/07 A3007 RMK A01 T01050070  RH  079%=      5-min Rain = 0
KTH1 050537Z 00004KT 11/07 A3007 RMK A01 T01050069  RH  078%=      5-min Rain = 0
KTH1 050538Z 01005KT 11/07 A3007 RMK A01 T01050069  RH  079%=      5-min Rain = 0
KTH1 050539Z 01006KT 11/07 A3007 RMK A01 T01050069  RH  079%=      5-min Rain = 0
KTH1 050540Z 36005KT 11/07 A3007 RMK A01 T01050070  RH  079%=      5-min Rain = 0
KTH1 050541Z 36006KT 11/07 A3007 RMK A01 T01050070  RH  079%=      5-min Rain = 0
KTH1 050542Z 01005KT 11/07 A3007 RMK A01 T01050070  RH  079%=      5-min Rain = 0
KTH1 050543Z 00005KT 11/07 A3007 RMK A01 T01050070  RH  079%=      5-min Rain = 0
KTH1 050544Z 01004KT 11/07 A3007 RMK A01 T01050070  RH  079%=      5-min Rain = 0
KTH1 050545Z 01005KT 11/07 A3007 RMK A01 T01060070  RH  079%=      5-min Rain = 0
KTH1 050546Z 00004KT 11/07 A3007 RMK A01 T01060070  RH  079%=      5-min Rain = 0
KTH1 050547Z 01007KT 11/07 A3007 RMK A01 T01060070  RH  079%=      5-min Rain = 0
KTH1 050548Z 01005KT 11/07 A3007 RMK A01 T01060070  RH  078%=      5-min Rain = 0
KTH1 050549Z 01004KT 11/07 A3007 RMK A01 T01060070  RH  078%=      5-min Rain = 0
KTH1 050550Z 01006KT 11/07 A3007 RMK A01 T01060070  RH  078%=      5-min Rain = 0
KTH1 050551Z 01005KT 11/07 A3007 RMK A01 T01060070  RH  078%=      5-min Rain = 0
KTH1 050552Z 00005KT 11/07 A3007 RMK A01 T01060070  RH  078%=      5-min Rain = 0
KTH1 050553Z 00004KT 11/07 A3007 RMK A01 T01060070  RH  078%=      5-min Rain = 0
KTH1 050554Z 01005KT 11/07 A3007 RMK A01 T01060071  RH  078%=      5-min Rain = 0
KTH1 050555Z 01004KT 11/07 A3007 RMK A01 T01070070  RH  078%=      5-min Rain = 0
KTH1 050556Z 01003KT 11/07 A3008 RMK A01 T01070071  RH  078%=      5-min Rain = 0
KTH1 050557Z 00005KT 11/07 A3008 RMK A01 T01070071  RH  078%=      5-min Rain = 0
KTH1 050558Z 01004KT 11/07 A3008 RMK A01 T01070071  RH  078%=      5-min Rain = 0
KTH1 050559Z 01004KT 11/07 A3008 RMK A01 T01070071  RH  078%=      5-min Rain = 0

Page generated in 0.0684 seconds.